KC5DAQ-2 Weather Reports


Display with metric or nautical units.
time (UTC)temp
F
wind
direction
speed
MPH
gust
MPH
rain 1hr
in
rain 24hr
in
rain mn
in
humidity
%
barometer
mb
20260508084526 67 73 0.0 0.0 0.00 0.00 0.00 91 1004.8
20260508084426 67 73 0.0 0.0 0.00 0.00 0.00 91 1004.7
20260508084328 67 73 0.0 0.0 0.00 0.00 0.00 91 1004.9
20260508084226 67 73 0.0 0.0 0.00 0.00 0.00 92 1004.9
20260508084128 67 73 0.0 0.0 0.00 0.00 0.00 92 1004.9
20260508084027 67 72 0.0 0.0 0.00 0.00 0.00 92 1005.0
20260508083926 67 72 0.0 0.0 0.00 0.00 0.00 92 1005.0
20260508083826 67 72 0.0 0.0 0.00 0.00 0.00 91 1005.0
20260508083728 67 72 0.0 0.0 0.00 0.00 0.00 91 1005.0
20260508083627 67 72 0.0 0.0 0.00 0.00 0.00 91 1005.0
20260508083528 67 72 0.0 0.0 0.00 0.00 0.00 92 1005.1
20260508083428 67 72 0.0 0.0 0.00 0.00 0.00 92 1005.1
20260508083327 67 72 0.0 0.0 0.00 0.00 0.00 92 1005.1
20260508083226 67 72 0.0 0.0 0.00 0.00 0.00 91 1005.1
20260508083127 67 72 0.0 0.0 0.00 0.00 0.00 92 1005.1
20260508083036 67 72 0.0 0.0 0.00 0.00 0.00 92 1005.1
20260508082927 67 72 0.0 0.0 0.00 0.00 0.00 92 1005.2
20260508082826 67 72 0.0 0.0 0.00 0.00 0.00 92 1005.1
20260508082726 67 72 0.0 0.0 0.00 0.00 0.00 92 1005.1
20260508082627 67 62 0.0 0.0 0.00 0.00 0.00 92 1005.3
20260508082528 67 62 0.0 0.0 0.00 0.00 0.00 92 1005.2
20260508082426 67 62 0.0 0.0 0.00 0.00 0.00 92 1005.3
20260508082328 67 62 0.0 0.0 0.00 0.00 0.00 92 1005.3
20260508082230 67 62 0.0 0.0 0.00 0.00 0.00 92 1005.3
20260508082127 67 62 0.0 0.0 0.00 0.00 0.00 92 1005.2
20260508082027 67 62 0.0 0.0 0.00 0.00 0.00 92 1005.3
20260508081927 67 62 0.0 0.0 0.00 0.00 0.00 92 1005.3
20260508081825 66 62 0.0 0.0 0.00 0.00 0.00 92 1005.2
20260508081727 67 51 0.0 0.0 0.00 0.00 0.00 92 1005.2
20260508081627 67 51 0.0 0.0 0.00 0.00 0.00 92 1005.2
20260508081527 66 90 0.0 0.0 0.00 0.00 0.00 92 1005.2
20260508081426 66 102 0.0 0.0 0.00 0.00 0.00 92 1005.2
20260508081325 66 102 0.0 0.0 0.00 0.00 0.00 92 1005.2
20260508081226 67 102 0.0 0.0 0.00 0.00 0.00 92 1005.2
20260508081127 66 102 0.0 0.0 0.00 0.00 0.00 92 1005.2
20260508081025 66 102 0.0 0.0 0.00 0.00 0.00 92 1005.2
20260508080928 66 102 0.0 0.0 0.00 0.00 0.00 92 1005.2
20260508080826 66 102 0.0 0.0 0.00 0.00 0.00 92 1005.2
20260508080726 66 102 0.0 0.0 0.00 0.00 0.00 92 1005.2
20260508080626 66 102 0.0 0.0 0.00 0.00 0.00 92 1005.2
20260508080525 66 102 0.0 0.0 0.00 0.00 0.00 92 1005.2
20260508080425 66 102 0.0 0.0 0.00 0.00 0.00 92 1005.2
20260508080327 66 102 0.0 0.0 0.00 0.00 0.00 92 1005.2
20260508080227 66 102 0.0 0.0 0.00 0.00 0.00 92 1005.2
20260508080126 66 114 0.0 0.0 0.00 0.00 0.00 92 1005.2
20260508080026 66 114 0.0 0.0 0.00 0.00 0.00 92 1005.2
20260508075928 66 114 0.0 0.0 0.00 0.00 0.00 92 1005.2
20260508075826 66 114 0.0 0.0 0.00 0.00 0.00 92 1005.3
20260508075726 66 114 0.0 0.0 0.00 0.00 0.00 92 1005.3
20260508075627 66 114 0.0 0.0 0.00 0.00 0.00 92 1005.3
20260508075527 66 106 0.0 0.0 0.00 0.00 0.00 92 1005.3
20260508075427 66 106 0.0 0.0 0.00 0.00 0.00 92 1005.3
20260508075325 66 106 0.0 0.0 0.00 0.00 0.00 92 1005.3
20260508075227 66 106 0.0 0.0 0.00 0.00 0.00 92 1005.2
20260508075130 66 55 0.0 0.0 0.00 0.00 0.00 92 1005.2
20260508075028 66 55 0.0 0.0 0.00 0.00 0.00 92 1005.4
20260508074925 66 55 0.0 0.0 0.00 0.00 0.00 92 1005.4
20260508074825 66 55 0.0 0.0 0.00 0.00 0.00 92 1005.4
20260508074725 66 55 0.0 0.0 0.00 0.00 0.00 92 1005.4
20260508074628 66 55 0.0 0.0 0.00 0.00 0.00 92 1005.4
20260508074526 66 86 0.0 0.0 0.00 0.00 0.00 92 1005.4
20260508074425 66 86 0.0 0.0 0.00 0.00 0.00 92 1005.3
20260508074327 66 86 0.0 0.0 0.00 0.00 0.00 92 1005.4
20260508074226 66 86 0.0 0.0 0.00 0.00 0.00 92 1005.4
20260508074126 66 86 0.0 0.0 0.00 0.00 0.00 92 1005.5
20260508074027 66 86 0.0 0.0 0.00 0.00 0.00 92 1005.5
20260508073925 66 86 0.0 0.0 0.00 0.00 0.00 92 1005.6
20260508073825 66 86 0.0 0.0 0.00 0.00 0.00 92 1005.6
20260508073726 66 86 0.0 0.0 0.00 0.00 0.00 92 1005.6
20260508073628 66 87 0.0 0.0 0.00 0.00 0.00 92 1005.7
20260508073526 66 87 0.0 0.0 0.00 0.00 0.00 92 1005.7
20260508073426 66 87 0.0 0.0 0.00 0.00 0.00 92 1005.6
20260508073324 66 87 0.0 0.0 0.00 0.00 0.00 92 1005.7
20260508073225 66 87 0.0 0.0 0.00 0.00 0.00 92 1005.6
20260508073126 66 87 0.0 0.0 0.00 0.00 0.00 92 1005.7
20260508073024 66 87 0.0 0.0 0.00 0.00 0.00 93 1005.8
20260508072924 66 87 0.0 0.0 0.00 0.00 0.00 93 1005.8
20260508072823 66 87 0.0 0.0 0.00 0.00 0.00 93 1005.9
20260508072723 66 87 0.0 0.0 0.00 0.00 0.00 93 1006.0
20260508072623 66 87 0.0 0.0 0.00 0.00 0.00 93 1006.0
20260508072523 66 87 0.0 0.0 0.00 0.00 0.00 93 1006.0
20260508072422 66 87 0.0 0.0 0.00 0.00 0.00 92 1006.0
20260508072324 66 86 0.0 0.0 0.00 0.00 0.00 92 1006.0
20260508072222 66 86 0.0 0.0 0.00 0.00 0.00 92 1006.0
20260508072122 66 86 0.0 0.0 0.00 0.00 0.00 92 1005.9
20260508072023 66 86 0.0 0.0 0.00 0.00 0.00 92 1005.8
20260508071924 66 86 0.0 0.0 0.00 0.00 0.00 92 1005.7
20260508071823 66 86 0.0 0.0 0.00 0.00 0.00 92 1005.7
20260508071723 66 86 0.0 0.0 0.00 0.00 0.00 92 1005.8
20260508071623 66 86 0.0 0.0 0.00 0.00 0.00 92 1005.8
20260508071523 66 86 0.0 0.0 0.00 0.00 0.00 92 1005.9
20260508071425 66 86 0.0 0.0 0.00 0.00 0.00 92 1006.0
20260508071322 66 86 0.0 0.0 0.00 0.00 0.00 92 1006.0
20260508071223 66 86 0.0 0.0 0.00 0.00 0.00 92 1005.9
20260508071123 66 86 0.0 0.0 0.00 0.00 0.00 92 1005.9
20260508071022 66 86 0.0 0.0 0.00 0.00 0.00 92 1005.8
20260508070922 66 86 0.0 0.0 0.00 0.00 0.00 92 1005.8
20260508070823 66 86 0.0 0.0 0.00 0.00 0.00 92 1005.7
20260508070723 65 86 0.0 0.0 0.00 0.00 0.00 92 1005.6
20260508070622 65 86 0.0 0.0 0.00 0.00 0.00 92 1005.7
20260508070529 65 86 0.0 0.0 0.00 0.00 0.00 92 1005.5
20260508070423 65 86 0.0 0.0 0.00 0.00 0.00 92 1005.6
20260508070324 65 86 0.0 0.0 0.00 0.00 0.00 92 1005.6
20260508070223 65 86 0.0 0.0 0.00 0.00 0.00 92 1005.8
20260508070122 65 86 0.0 0.0 0.00 0.00 0.00 92 1005.7
20260508070027 65 87 0.0 0.0 0.00 0.00 0.00 92 1005.8
20260508065925 65 87 0.0 0.0 0.00 0.00 0.00 92 1005.8
20260508065824 65 87 0.0 0.0 0.00 0.00 0.00 92 1005.8
20260508065723 65 87 0.0 0.0 0.00 0.00 0.00 92 1005.9
20260508065621 65 87 0.0 0.0 0.00 0.00 0.00 92 1005.9
20260508065521 65 87 0.0 0.0 0.00 0.00 0.00 92 1005.9
20260508065423 65 87 0.0 0.0 0.00 0.00 0.00 92 1005.9
20260508065324 65 87 0.0 0.0 0.00 0.00 0.00 92 1006.1
20260508065227 65 58 0.0 0.0 0.00 0.00 0.00 93 1006.0
20260508065122 65 58 0.0 0.0 0.00 0.00 0.00 92 1006.0
20260508065024 65 58 0.0 0.0 0.00 0.00 0.00 93 1006.0
20260508064921 65 58 0.0 0.0 0.00 0.00 0.00 92 1006.0
20260508064823 65 58 0.0 0.0 0.00 0.00 0.00 92 1005.9
20260508064724 65 58 0.0 0.0 0.00 0.00 0.00 92 1006.0
20260508064623 65 58 0.0 0.0 0.00 0.00 0.00 93 1006.0
20260508064521 65 58 0.0 0.0 0.00 0.00 0.00 93 1005.9
20260508064424 65 58 0.0 0.0 0.00 0.00 0.00 92 1005.9
20260508064322 65 58 0.0 0.0 0.00 0.00 0.00 92 1006.0
20260508064221 65 58 0.0 0.0 0.00 0.00 0.00 92 1005.9
20260508064122 65 58 0.0 0.0 0.00 0.00 0.00 92 1005.9
20260508064024 65 59 0.0 0.0 0.00 0.00 0.00 92 1005.9
20260508063922 65 59 0.0 0.0 0.00 0.00 0.00 92 1006.0
20260508063822 65 59 0.0 0.0 0.00 0.00 0.00 92 1005.9
20260508063721 65 59 0.0 0.0 0.00 0.00 0.00 92 1005.9
20260508063622 65 59 0.0 0.0 0.00 0.00 0.00 92 1005.8
20260508063521 65 59 0.0 0.0 0.00 0.00 0.00 92 1005.9
20260508063422 65 59 0.0 0.0 0.00 0.00 0.00 93 1005.9
20260508063321 65 71 0.0 0.0 0.00 0.00 0.00 93 1005.9
20260508063222 65 62 0.0 0.0 0.00 0.00 0.00 93 1005.9
20260508063123 65 80 0.0 0.0 0.00 0.00 0.00 93 1005.9
20260508063022 65 87 0.0 0.0 0.00 0.00 0.00 93 1005.9
20260508062924 65 87 0.0 0.0 0.00 0.00 0.00 93 1005.9
20260508062821 65 87 0.0 0.0 0.00 0.00 0.00 92 1005.9
20260508062722 65 87 0.0 0.0 0.00 0.00 0.00 92 1005.9
20260508062622 65 87 0.0 0.0 0.00 0.00 0.00 92 1006.0
20260508062522 65 87 0.0 0.0 0.00 0.00 0.00 92 1006.0
20260508062418 65 87 0.0 0.0 0.00 0.00 0.00 92 1006.1
20260508062314 65 86 0.0 0.0 0.00 0.00 0.00 92 1006.1
20260508062212 65 86 0.0 0.0 0.00 0.00 0.00 92 1006.1
20260508062103 65 86 0.0 0.0 0.00 0.00 0.00 92 1006.1
20260508062004 65 86 0.0 0.0 0.00 0.00 0.00 92 1006.0
20260508061903 65 86 0.0 0.0 0.00 0.00 0.00 92 1006.0
20260508061804 65 86 0.0 0.0 0.00 0.00 0.00 92 1006.0
20260508061703 65 86 0.0 0.0 0.00 0.00 0.00 92 1005.9
20260508061603 65 85 0.0 0.0 0.00 0.00 0.00 92 1005.9
20260508061502 65 85 0.0 0.0 0.00 0.00 0.00 92 1005.9
20260508061403 65 85 0.0 0.0 0.00 0.00 0.00 92 1005.9
20260508061303 65 85 0.0 0.0 0.00 0.00 0.00 92 1006.0
20260508061205 65 85 0.0 0.0 0.00 0.00 0.00 92 1006.1
20260508061103 65 82 0.0 0.0 0.00 0.00 0.00 92 1006.1
20260508061001 65 82 0.0 0.0 0.00 0.00 0.00 92 1006.2
20260508060853 65 82 0.0 0.0 0.00 0.00 0.00 92 1006.2
20260508060749 65 82 0.0 0.0 0.00 0.00 0.00 92 1006.2
20260508060647 65 82 0.0 0.0 0.00 0.00 0.00 92 1006.3
20260508060543 65 82 0.0 0.0 0.00 0.00 0.00 92 1006.1
20260508060438 65 82 0.0 0.0 0.00 0.00 0.00 92 1006.1
20260508060331 65 82 0.0 0.0 0.00 0.00 0.00 92 1006.2
20260508060230 65 82 0.0 0.0 0.00 0.00 0.00 92 1006.0
20260508060124 65 82 0.0 0.0 0.00 0.00 0.00 92 1005.9
20260508060022 65 82 0.0 0.0 0.00 0.00 0.00 92 1005.9
20260508055922 65 82 0.0 0.0 0.00 0.00 0.00 92 1005.9
20260508055822 65 82 0.0 0.0 0.00 0.00 0.00 92 1005.8
20260508055720 65 82 0.0 0.0 0.00 0.00 0.00 92 1005.8
20260508055620 65 82 0.0 0.0 0.00 0.00 0.00 91 1005.8
20260508055523 65 82 0.0 0.0 0.00 0.00 0.00 91 1005.8
20260508055420 65 82 0.0 0.0 0.00 0.00 0.00 91 1005.8
20260508055322 65 82 0.0 0.0 0.00 0.00 0.00 91 1005.7
20260508055221 65 82 0.0 0.0 0.00 0.00 0.00 91 1005.8
20260508055120 65 82 0.0 0.0 0.00 0.00 0.00 91 1005.7
20260508055024 65 82 0.0 0.0 0.00 0.00 0.00 91 1005.6
20260508054922 65 82 0.0 0.0 0.00 0.00 0.00 91 1005.6
20260508054821 65 82 0.0 0.0 0.00 0.00 0.00 91 1005.5
20260508054723 65 82 0.0 0.0 0.00 0.00 0.00 91 1005.5
20260508054620 65 82 0.0 0.0 0.00 0.00 0.00 91 1005.6
20260508054520 65 82 0.0 0.0 0.00 0.00 0.00 91 1005.5
20260508054420 65 82 0.0 0.0 0.00 0.00 0.00 91 1005.5
20260508054320 65 82 0.0 0.0 0.00 0.00 0.00 91 1005.6
20260508054222 65 82 0.0 0.0 0.00 0.00 0.00 91 1005.7
20260508054116 65 82 0.0 0.0 0.00 0.00 0.00 91 1005.8
20260508054011 65 82 0.0 0.0 0.00 0.00 0.00 91 1005.8
20260508053904 65 82 0.0 0.0 0.00 0.00 0.00 91 1005.8
20260508053803 65 82 0.0 0.0 0.00 0.00 0.00 91 1005.9
20260508053703 65 82 0.0 0.0 0.00 0.00 0.00 91 1005.9
20260508053603 65 82 0.0 0.0 0.00 0.00 0.00 91 1005.9
20260508053505 65 82 0.0 0.0 0.00 0.00 0.00 91 1005.9
20260508053403 65 82 0.0 0.0 0.00 0.00 0.00 91 1005.9
20260508053303 65 82 0.0 0.0 0.00 0.00 0.00 91 1005.9
20260508053202 65 82 0.0 0.0 0.00 0.00 0.00 91 1005.9
20260508053102 65 82 0.0 0.0 0.00 0.00 0.00 91 1005.9
20260508053004 65 82 0.0 0.0 0.00 0.00 0.00 91 1006.0
20260508052902 65 82 0.0 0.0 0.00 0.00 0.00 91 1006.0
20260508052803 65 82 0.0 0.0 0.00 0.00 0.00 91 1006.0
20260508052704 65 82 0.0 0.0 0.00 0.00 0.00 91 1006.1
20260508052604 65 82 0.0 0.0 0.00 0.00 0.00 90 1006.1
20260508052503 66 82 0.0 0.0 0.00 0.00 0.00 90 1006.1
20260508052404 66 82 0.0 0.0 0.00 0.00 0.00 90 1006.0
20260508052306 66 82 0.0 0.0 0.00 0.00 0.00 90 1006.0
20260508052202 66 82 0.0 0.0 0.00 0.00 0.00 90 1005.9
20260508052103 66 82 0.0 0.0 0.00 0.00 0.00 90 1005.7
20260508052002 66 82 0.0 0.0 0.00 0.00 0.00 90 1005.6
20260508051902 66 82 0.0 0.0 0.00 0.00 0.00 90 1005.6
20260508051804 66 82 0.0 0.0 0.00 0.00 0.00 90 1005.6
20260508051703 66 82 0.0 0.0 0.00 0.00 0.00 90 1005.5
20260508051604 66 82 0.0 0.0 0.00 0.00 0.00 90 1005.5
20260508051503 66 82 0.0 0.0 0.00 0.00 0.00 90 1005.5
20260508051404 66 82 0.0 0.0 0.00 0.00 0.00 90 1005.4
20260508051302 66 82 0.0 0.0 0.00 0.00 0.00 90 1005.5
20260508051203 66 82 0.0 0.0 0.00 0.00 0.00 90 1005.5
20260508051104 66 82 0.0 0.0 0.00 0.00 0.00 90 1005.5
20260508051006 66 82 0.0 0.0 0.00 0.00 0.00 90 1005.4
20260508050904 66 82 0.0 0.0 0.00 0.00 0.00 90 1005.5
20260508050804 66 82 0.0 0.0 0.00 0.00 0.00 89 1005.4
20260508050704 66 82 0.0 0.0 0.00 0.00 0.00 89 1005.5
20260508050603 66 82 0.0 0.0 0.00 0.00 0.00 89 1005.5
20260508050502 66 82 0.0 0.0 0.00 0.00 0.00 89 1005.6
20260508050402 66 82 0.0 0.0 0.00 0.00 0.00 89 1005.5
20260508050304 66 82 0.0 0.0 0.00 0.00 0.00 89 1005.7
20260508050211 66 82 0.0 0.0 0.00 0.00 0.00 89 1005.7
20260508050100 66 82 0.0 0.0 0.00 0.00 0.00 89 1005.7
20260508045958 66 82 0.0 0.0 0.00 0.00 0.00 89 1005.8
20260508045853 66 82 0.0 0.0 0.00 0.00 0.00 89 1005.7
20260508045743 66 82 0.0 0.0 0.00 0.00 0.00 89 1005.8
20260508045641 66 82 0.0 0.0 0.00 0.00 0.00 89 1005.8
20260508045537 66 82 0.0 0.0 0.00 0.00 0.00 89 1005.8
20260508045432 66 82 0.0 0.0 0.00 0.00 0.00 89 1005.8
20260508045331 66 82 0.0 0.0 0.00 0.00 0.00 89 1005.6
20260508045233 66 82 0.0 0.0 0.00 0.00 0.00 89 1005.6
20260508045132 66 82 0.0 0.0 0.00 0.00 0.00 89 1005.7
20260508045033 66 82 0.0 0.0 0.00 0.00 0.00 89 1005.7
20260508044932 66 82 0.0 0.0 0.00 0.00 0.00 89 1005.8
20260508044832 66 82 0.0 0.0 0.00 0.00 0.00 89 1005.9
20260508044732 66 82 0.0 0.0 0.00 0.00 0.00 89 1006.0
20260508044632 66 82 0.0 0.0 0.00 0.00 0.00 89 1006.0
20260508044532 66 82 0.0 0.0 0.00 0.00 0.00 89 1006.0
20260508044432 66 82 0.0 0.0 0.00 0.00 0.00 89 1006.0
20260508044333 66 82 0.0 0.0 0.00 0.00 0.00 89 1006.0
20260508044232 66 82 0.0 0.0 0.00 0.00 0.00 89 1006.0
20260508044121 66 82 0.0 0.0 0.00 0.00 0.00 89 1006.0
20260508044050 66 82 0.0 0.0 0.00 0.00 0.00 89 1005.9
20260508043918 66 82 0.0 0.0 0.00 0.00 0.00 89 1005.8
20260508043818 66 82 0.0 0.0 0.00 0.00 0.00 89 1005.8
20260508043719 66 82 0.0 0.0 0.00 0.00 0.00 89 1005.8
20260508043619 66 82 0.0 0.0 0.00 0.00 0.00 89 1005.8
20260508043521 66 82 0.0 0.0 0.00 0.00 0.00 89 1005.8
20260508043420 66 82 0.0 0.0 0.00 0.00 0.00 88 1005.8
20260508043319 66 82 0.0 0.0 0.00 0.00 0.00 88 1005.7
20260508043220 66 82 0.0 0.0 0.00 0.00 0.00 88 1005.7
20260508043119 66 82 0.0 0.0 0.00 0.00 0.00 88 1005.7
20260508043018 66 82 0.0 0.0 0.00 0.00 0.00 88 1005.7
20260508042918 66 82 0.0 0.0 0.00 0.00 0.00 88 1005.8
20260508042820 66 82 0.0 0.0 0.00 0.00 0.00 88 1005.8
20260508042718 66 82 0.0 0.0 0.00 0.00 0.00 88 1005.8
20260508042620 66 82 0.0 0.0 0.00 0.00 0.00 88 1005.8
20260508042520 66 82 0.0 0.0 0.00 0.00 0.00 88 1005.8
20260508042419 66 82 0.0 0.0 0.00 0.00 0.00 88 1005.8
20260508042321 66 82 0.0 0.0 0.00 0.00 0.00 88 1005.8
20260508042218 66 82 0.0 0.0 0.00 0.00 0.00 88 1005.9
20260508042121 66 82 0.0 0.0 0.00 0.00 0.00 88 1005.9
20260508042020 66 82 0.0 0.0 0.00 0.00 0.00 88 1006.0
20260508041918 67 82 0.0 0.0 0.00 0.00 0.00 88 1006.0
20260508041818 67 82 0.0 0.0 0.00 0.00 0.00 88 1006.0
20260508041718 67 82 0.0 0.0 0.00 0.00 0.00 88 1005.9
20260508041623 67 82 0.0 0.0 0.00 0.00 0.00 88 1006.0
20260508041518 67 82 0.0 0.0 0.00 0.00 0.00 88 1005.9
20260508041418 67 82 0.0 0.0 0.00 0.00 0.00 88 1005.9
20260508041319 67 82 0.0 0.0 0.00 0.00 0.00 88 1005.9
20260508041219 67 82 0.0 0.0 0.00 0.00 0.00 88 1005.9
20260508041123 67 82 0.0 0.0 0.00 0.00 0.00 88 1005.9
20260508041019 67 82 0.0 0.0 0.00 0.00 0.00 88 1005.9
20260508040919 67 82 0.0 0.0 0.00 0.00 0.00 88 1005.9
20260508040820 67 82 0.0 0.0 0.00 0.00 0.00 88 1005.8
20260508040719 67 82 0.0 0.0 0.00 0.00 0.00 88 1005.8
20260508040619 67 82 0.0 0.0 0.00 0.00 0.00 88 1005.9
20260508040519 67 82 0.0 0.0 0.00 0.00 0.00 88 1005.9
20260508040418 67 82 0.0 0.0 0.00 0.00 0.00 88 1006.0
20260508040319 67 82 0.0 0.0 0.00 0.00 0.00 88 1006.1
20260508040211 67 82 0.0 0.0 0.00 0.00 0.00 88 1006.2
20260508040106 67 82 0.0 0.0 0.00 0.00 0.00 88 1006.2
20260508040004 67 82 0.0 0.0 0.00 0.00 0.00 88 1006.1
20260508035903 67 82 0.0 0.0 0.00 0.00 0.00 88 1006.0
20260508035803 67 82 0.0 0.0 0.00 0.00 0.00 88 1006.0
20260508035704 67 82 0.0 0.0 0.00 0.00 0.00 88 1006.0
20260508035610 67 82 0.0 0.0 0.00 0.00 0.00 88 1006.1
20260508035504 67 82 0.0 0.0 0.00 0.00 0.00 88 1006.1
20260508035404 67 82 0.0 0.0 0.00 0.00 0.00 88 1006.0
20260508035306 67 82 0.0 0.0 0.00 0.00 0.00 88 1006.1
20260508035205 67 82 0.0 0.0 0.00 0.00 0.00 88 1006.1
20260508035104 67 82 0.0 0.0 0.00 0.00 0.00 88 1006.1
20260508035003 67 82 0.0 0.0 0.00 0.00 0.00 88 1006.1
20260508034903 67 82 0.0 0.0 0.00 0.00 0.00 88 1006.2
20260508034803 67 82 0.0 0.0 0.00 0.00 0.00 87 1006.1
20260508034703 67 82 0.0 0.0 0.00 0.00 0.00 87 1006.1
20260508034614 67 82 0.0 0.0 0.00 0.00 0.00 87 1006.1
20260508034503 67 82 0.0 0.0 0.00 0.00 0.00 87 1005.9
20260508034402 67 82 0.0 0.0 0.00 0.00 0.00 87 1005.8
20260508034303 67 82 0.0 0.0 0.00 0.00 0.00 87 1005.7
20260508034201 67 82 0.0 0.0 0.00 0.00 0.00 87 1005.7
20260508034106 67 82 0.0 0.0 0.00 0.00 0.00 87 1005.7
20260508034002 67 82 0.0 0.0 0.00 0.00 0.00 87 1005.7
20260508033903 67 82 0.0 0.0 0.00 0.00 0.00 87 1005.7
20260508033803 67 82 0.0 0.0 0.00 0.00 0.00 87 1005.6
20260508033704 67 82 0.0 0.0 0.00 0.00 0.00 87 1005.7
20260508033607 67 82 0.0 0.0 0.00 0.00 0.00 87 1005.6
20260508033503 67 90 0.0 0.0 0.00 0.00 0.00 87 1005.6
20260508033402 67 90 0.0 0.0 0.00 0.00 0.00 87 1005.6
20260508033304 67 90 0.0 0.0 0.00 0.00 0.00 87 1005.6
20260508033205 67 85 0.0 0.0 0.00 0.00 0.00 87 1005.5
20260508033102 67 83 0.0 0.0 0.00 0.00 0.00 87 1005.7
20260508033003 67 85 0.0 0.0 0.00 0.00 0.00 87 1005.7
20260508032902 67 85 0.0 0.0 0.00 0.00 0.00 87 1005.8
20260508032803 67 85 0.0 0.0 0.00 0.00 0.00 87 1005.9
20260508032702 67 94 0.0 0.0 0.00 0.00 0.00 87 1005.9
20260508032602 67 94 0.0 0.0 0.00 0.00 0.00 87 1006.0
20260508032504 67 104 0.0 0.0 0.00 0.00 0.00 87 1005.9
20260508032403 67 24 0.0 0.0 0.00 0.00 0.00 87 1005.8
20260508032306 67 24 0.0 0.0 0.00 0.00 0.00 87 1005.8
20260508032203 67 24 0.0 0.0 0.00 0.00 0.00 87 1005.7
20260508032104 67 8 0.0 0.0 0.00 0.00 0.00 87 1005.7
20260508032003 67 8 0.0 0.0 0.00 0.00 0.00 87 1005.7
20260508031902 67 86 0.0 0.0 0.00 0.00 0.00 87 1005.6
20260508031804 67 52 0.0 0.0 0.00 0.00 0.00 87 1005.6
20260508031702 67 52 0.0 0.0 0.00 0.00 0.00 87 1005.6
20260508031604 67 52 0.0 0.0 0.00 0.00 0.00 87 1005.5
20260508031502 68 52 0.0 0.0 0.00 0.00 0.00 87 1005.6
20260508031404 67 75 0.0 0.0 0.00 0.00 0.00 86 1005.7
20260508031302 67 76 0.0 0.0 0.00 0.00 0.00 86 1005.7
20260508031203 67 76 0.0 0.0 0.00 0.00 0.00 86 1005.8
20260508031102 67 76 0.0 0.0 0.00 0.00 0.00 86 1005.8
20260508031004 68 76 0.0 0.0 0.00 0.00 0.00 86 1005.9
20260508030902 68 76 0.0 0.0 0.00 0.00 0.00 86 1005.8
20260508030805 68 76 0.0 0.0 0.00 0.00 0.00 86 1005.8
20260508030702 68 76 0.0 0.0 0.00 0.00 0.00 86 1005.7
20260508030604 68 55 0.0 0.0 0.00 0.00 0.00 86 1005.7
20260508030503 68 82 0.0 0.0 0.00 0.00 0.00 86 1005.7
20260508030402 68 82 0.0 0.0 0.00 0.00 0.00 86 1005.6
20260508030302 68 82 0.0 0.0 0.00 0.00 0.00 86 1005.7
20260508030204 68 82 0.0 0.0 0.00 0.00 0.00 86 1005.7
20260508030103 68 82 0.0 0.0 0.00 0.00 0.00 86 1005.7
20260508030004 68 82 0.0 0.0 0.00 0.00 0.00 86 1005.8
20260508025904 68 82 0.0 0.0 0.00 0.00 0.00 86 1005.7
20260508025802 68 89 0.0 0.0 0.00 0.00 0.00 86 1005.7
20260508025702 68 89 0.0 0.0 0.00 0.00 0.00 86 1005.8
20260508025604 68 89 0.0 0.0 0.00 0.00 0.00 86 1005.9
20260508025503 68 89 0.0 0.0 0.00 0.00 0.00 86 1005.9
20260508025402 68 89 0.0 0.0 0.00 0.00 0.00 86 1005.9
20260508025306 68 82 0.0 0.0 0.00 0.00 0.00 86 1006.0
20260508025202 68 82 0.0 0.0 0.00 0.00 0.00 86 1006.0
20260508025102 68 68 0.0 1.0 0.00 0.00 0.00 86 1006.0
20260508025003 68 68 0.0 1.0 0.00 0.00 0.00 86 1006.0
20260508024903 68 68 0.0 1.0 0.00 0.00 0.00 86 1006.0
20260508024803 68 69 0.0 1.0 0.00 0.00 0.00 86 1006.0
20260508024702 68 52 0.0 1.0 0.00 0.00 0.00 86 1006.0
20260508024603 68 52 0.0 3.0 0.00 0.00 0.00 86 1006.0
20260508024506 68 47 0.0 3.0 0.00 0.00 0.00 86 1005.9
20260508024404 68 76 0.0 3.0 0.00 0.00 0.00 86 1006.0
20260508024302 68 76 0.0 3.0 0.00 0.00 0.00 86 1006.0
20260508024203 68 72 0.0 3.0 0.00 0.00 0.00 86 1006.0
20260508024102 68 78 0.0 3.0 0.00 0.00 0.00 86 1006.1
20260508024004 68 59 0.0 3.0 0.00 0.00 0.00 86 1006.2
20260508023902 68 48 0.0 3.0 0.00 0.00 0.00 86 1006.2
20260508023802 68 66 0.0 3.0 0.00 0.00 0.00 86 1006.3
20260508023704 68 66 0.0 3.0 0.00 0.00 0.00 86 1006.3
20260508023603 68 76 0.0 1.0 0.00 0.00 0.00 86 1006.3
20260508023504 69 76 0.0 1.0 0.00 0.00 0.00 86 1006.3
20260508023404 69 76 0.0 1.0 0.00 0.00 0.00 86 1006.2
20260508023305 69 76 0.0 1.0 0.00 0.00 0.00 86 1006.1
20260508023202 69 76 0.0 1.0 0.00 0.00 0.00 86 1006.2
20260508023102 69 83 0.0 1.0 0.00 0.00 0.00 86 1006.2
20260508023003 69 85 0.0 1.0 0.00 0.00 0.00 86 1006.2
20260508022902 69 89 0.0 1.0 0.00 0.00 0.00 86 1006.3
20260508022802 69 73 0.0 0.0 0.00 0.00 0.00 86 1006.3
20260508022702 69 86 0.0 1.0 0.00 0.00 0.00 86 1006.3
20260508022602 69 86 0.0 1.0 0.00 0.00 0.00 86 1006.4
20260508022503 69 86 0.0 1.0 0.00 0.00 0.00 86 1006.4
20260508022403 69 86 0.0 1.0 0.00 0.00 0.00 86 1006.3
20260508022306 69 86 0.0 1.0 0.00 0.00 0.00 86 1006.3
20260508022216 69 86 0.0 1.0 0.00 0.00 0.00 86 1006.3
20260508022101 69 85 0.0 1.0 0.00 0.00 0.00 85 1006.3
20260508022004 69 85 0.0 1.0 0.00 0.00 0.00 85 1006.3
20260508021903 69 85 0.0 1.0 0.00 0.00 0.00 86 1006.3
20260508021804 69 87 0.0 1.0 0.00 0.00 0.00 86 1006.3
20260508021714 69 86 0.0 0.0 0.00 0.00 0.00 86 1006.4
20260508021603 69 83 0.0 0.0 0.00 0.00 0.00 86 1006.4
20260508021503 69 83 0.0 0.0 0.00 0.00 0.00 85 1006.4
20260508021402 69 83 0.0 0.0 0.00 0.00 0.00 86 1006.3
20260508021302 69 83 0.0 0.0 0.00 0.00 0.00 86 1006.3
20260508021205 69 83 0.0 0.0 0.00 0.00 0.00 86 1006.2
20260508021103 69 85 0.0 0.0 0.00 0.00 0.00 86 1006.2
20260508021003 69 85 0.0 0.0 0.00 0.00 0.00 86 1006.1
20260508020904 69 85 0.0 0.0 0.00 0.00 0.00 86 1006.1
20260508020803 69 85 0.0 0.0 0.00 0.00 0.00 86 1006.2
20260508020713 69 85 0.0 0.0 0.00 0.00 0.00 85 1006.1
20260508020603 69 85 0.0 0.0 0.00 0.00 0.00 85 1006.2
20260508020504 69 85 0.0 0.0 0.00 0.00 0.00 85 1006.3
20260508020404 70 86 0.0 0.0 0.00 0.00 0.00 85 1006.3
20260508020303 70 86 0.0 0.0 0.00 0.00 0.00 85 1006.3
20260508020208 70 86 0.0 0.0 0.00 0.00 0.00 85 1006.2
20260508020104 70 86 0.0 0.0 0.00 0.00 0.00 85 1006.2
20260508020005 70 86 0.0 0.0 0.00 0.00 0.00 85 1006.2
20260508015902 70 86 0.0 0.0 0.00 0.00 0.00 85 1006.3
20260508015800 70 86 0.0 0.0 0.00 0.00 0.00 85 1006.3
20260508015702 70 86 0.0 0.0 0.00 0.00 0.00 85 1006.2
20260508015549 70 86 0.0 0.0 0.00 0.00 0.00 85 1006.2
20260508015439 70 86 0.0 0.0 0.00 0.00 0.00 85 1006.1
20260508015337 70 86 0.0 0.0 0.00 0.00 0.00 85 1006.2
20260508015232 70 86 0.0 0.0 0.00 0.00 0.00 85 1006.1
20260508015132 70 86 0.0 0.0 0.00 0.00 0.00 85 1006.1
20260508015031 70 86 0.0 0.0 0.00 0.00 0.00 85 1006.2
20260508014932 70 86 0.0 0.0 0.00 0.00 0.00 85 1006.2
20260508014830 70 86 0.0 0.0 0.00 0.00 0.00 85 1006.2
20260508014731 70 86 0.0 0.0 0.00 0.00 0.00 85 1006.2
20260508014624 70 86 0.0 0.0 0.00 0.00 0.00 85 1006.3
20260508014522 70 86 0.0 0.0 0.00 0.00 0.00 85 1006.4
20260508014415 70 86 0.0 0.0 0.00 0.00 0.00 85 1006.3
20260508014316 70 86 0.0 0.0 0.00 0.00 0.00 85 1006.3
20260508014215 70 99 0.0 0.0 0.00 0.00 0.00 85 1006.3
20260508014114 70 99 0.0 0.0 0.00 0.00 0.00 85 1006.3
20260508014018 71 99 0.0 0.0 0.00 0.00 0.00 85 1006.2
20260508013914 71 99 0.0 0.0 0.00 0.00 0.00 85 1006.2
20260508013816 71 99 0.0 0.0 0.00 0.00 0.00 84 1006.3
20260508013716 71 99 0.0 0.0 0.00 0.00 0.00 84 1006.3
20260508013614 71 99 0.0 0.0 0.00 0.00 0.00 84 1006.2
20260508013516 71 99 0.0 0.0 0.00 0.00 0.00 84 1006.2
20260508013416 71 99 0.0 0.0 0.00 0.00 0.00 84 1006.2
20260508013315 71 99 0.0 0.0 0.00 0.00 0.00 84 1006.1
20260508013214 71 99 0.0 0.0 0.00 0.00 0.00 84 1006.2
20260508013116 71 99 0.0 0.0 0.00 0.00 0.00 84 1006.2
20260508013015 71 99 0.0 0.0 0.00 0.00 0.00 84 1006.2
20260508012917 71 99 0.0 0.0 0.00 0.00 0.00 84 1006.3
20260508012814 71 99 0.0 0.0 0.00 0.00 0.00 84 1006.2
20260508012715 71 99 0.0 0.0 0.00 0.00 0.00 84 1006.3
20260508012614 71 99 0.0 0.0 0.00 0.00 0.00 84 1006.3
20260508012515 71 99 0.0 0.0 0.00 0.00 0.00 84 1006.3
20260508012414 71 99 0.0 0.0 0.00 0.00 0.00 84 1006.3
20260508012314 71 99 0.0 0.0 0.00 0.00 0.00 84 1006.3
20260508012215 71 99 0.0 0.0 0.00 0.00 0.00 84 1006.3
20260508012114 71 99 0.0 0.0 0.00 0.00 0.00 84 1006.2
20260508012015 71 99 0.0 0.0 0.00 0.00 0.00 84 1006.2
20260508011916 71 99 0.0 0.0 0.00 0.00 0.00 84 1006.0
20260508011814 71 99 0.0 0.0 0.00 0.00 0.00 84 1006.0
20260508011714 71 99 0.0 0.0 0.00 0.00 0.00 84 1006.0
20260508011616 71 99 0.0 0.0 0.00 0.00 0.00 84 1005.9
20260508011514 71 99 0.0 0.0 0.00 0.00 0.00 84 1006.0
20260508011415 71 99 0.0 0.0 0.00 0.00 0.00 83 1006.0
20260508011315 71 99 0.0 0.0 0.00 0.00 0.00 83 1005.9
20260508011214 71 99 0.0 0.0 0.00 0.00 0.00 83 1006.0
20260508011112 71 99 0.0 0.0 0.00 0.00 0.00 83 1006.0
20260508011010 71 99 0.0 0.0 0.00 0.00 0.00 83 1006.0
20260508010911 71 99 0.0 0.0 0.00 0.00 0.00 83 1006.1
20260508010810 71 99 0.0 0.0 0.00 0.00 0.00 83 1006.0
20260508010705 72 99 0.0 0.0 0.00 0.00 0.00 83 1006.0
20260508010603 72 99 0.0 0.0 0.00 0.00 0.00 83 1006.0
20260508010503 72 99 0.0 0.0 0.00 0.00 0.00 83 1006.0
20260508010405 72 99 0.0 0.0 0.00 0.00 0.00 83 1006.0
20260508010303 72 99 0.0 0.0 0.00 0.00 0.00 83 1006.0
20260508010203 72 99 0.0 0.0 0.00 0.00 0.00 83 1006.0
20260508010002 72 99 0.0 0.0 0.00 0.00 0.00 83 1006.1
20260508005902 72 99 0.0 0.0 0.00 0.00 0.00 83 1006.1
20260508005802 72 99 0.0 0.0 0.00 0.00 0.00 82 1006.1
20260508005703 72 99 0.0 0.0 0.00 0.00 0.00 82 1006.1
20260508005603 72 99 0.0 0.0 0.00 0.00 0.00 82 1006.1
20260508005502 72 99 0.0 0.0 0.00 0.00 0.00 82 1006.0
20260508005402 72 99 0.0 0.0 0.00 0.00 0.00 82 1006.0
20260508005305 72 99 0.0 0.0 0.00 0.00 0.00 82 1005.9
20260508005201 72 99 0.0 0.0 0.00 0.00 0.00 82 1005.9
20260508005103 72 99 0.0 0.0 0.00 0.00 0.00 82 1006.0
20260508005003 72 99 0.0 0.0 0.00 0.00 0.00 82 1006.0
20260508004903 72 99 0.0 0.0 0.00 0.00 0.00 82 1006.0
20260508004803 72 99 0.0 0.0 0.00 0.00 0.00 82 1006.0
20260508004703 72 99 0.0 0.0 0.00 0.00 0.00 82 1006.1
20260508004604 72 99 0.0 0.0 0.00 0.00 0.00 82 1006.0
20260508004503 72 99 0.0 0.0 0.00 0.00 0.00 82 1006.1
20260508004402 72 99 0.0 0.0 0.00 0.00 0.00 82 1006.1
20260508004304 72 99 0.0 0.0 0.00 0.00 0.00 82 1006.1
20260508004202 73 99 0.0 0.0 0.00 0.00 0.00 82 1006.0
20260508004104 73 99 0.0 0.0 0.00 0.00 0.00 82 1006.0
20260508004002 73 99 0.0 0.0 0.00 0.00 0.00 82 1006.0
20260508003902 73 99 0.0 0.0 0.00 0.00 0.00 82 1006.0
20260508003804 73 99 0.0 0.0 0.00 0.00 0.00 82 1005.9
20260508003704 73 99 0.0 0.0 0.00 0.00 0.00 82 1006.0
20260508003603 73 99 0.0 0.0 0.00 0.00 0.00 82 1005.9
20260508003504 73 99 0.0 0.0 0.00 0.00 0.00 82 1006.0
20260508003403 73 99 0.0 0.0 0.00 0.00 0.00 82 1006.0
20260508003302 73 99 0.0 0.0 0.00 0.00 0.00 82 1006.0
20260508003203 73 99 0.0 0.0 0.00 0.00 0.00 82 1006.0
20260508003103 73 99 0.0 0.0 0.00 0.00 0.00 82 1006.0
20260508003005 73 99 0.0 0.0 0.00 0.00 0.00 82 1005.9
20260508002902 73 99 0.0 0.0 0.00 0.00 0.00 82 1005.9
20260508002803 73 99 0.0 0.0 0.00 0.00 0.00 82 1005.8
20260508002702 73 97 0.0 0.0 0.00 0.00 0.00 82 1005.8
20260508002603 73 0 0.0 0.0 0.00 0.00 0.00 82 1005.6
20260508002503 73 0 0.0 0.0 0.00 0.00 0.00 82 1005.5
20260508002402 73 0 0.0 0.0 0.00 0.00 0.00 82 1005.5
20260508002306 73 28 0.0 0.0 0.00 0.00 0.00 82 1005.5
20260508002204 73 28 0.0 0.0 0.00 0.00 0.00 82 1005.5
20260508002103 73 28 0.0 0.0 0.00 0.00 0.00 82 1005.6
20260508002003 73 13 0.0 0.0 0.00 0.00 0.00 82 1005.6
20260508001902 74 75 0.0 0.0 0.00 0.00 0.00 81 1005.7
20260508001803 74 75 0.0 0.0 0.00 0.00 0.00 81 1005.7
20260508001703 74 75 0.0 0.0 0.00 0.00 0.00 81 1005.8
20260508001603 74 72 0.0 0.0 0.00 0.00 0.00 81 1005.8
20260508001503 74 72 0.0 0.0 0.00 0.00 0.00 81 1005.9
20260508001403 74 72 0.0 0.0 0.00 0.00 0.00 81 1006.0
20260508001303 74 72 0.0 0.0 0.00 0.00 0.00 81 1006.0
20260508001202 74 72 0.0 1.0 0.00 0.00 0.00 81 1006.2
20260508001103 74 72 0.0 1.0 0.00 0.00 0.00 81 1006.1
20260508001008 74 72 0.0 1.0 0.00 0.00 0.00 81 1006.1
20260508000901 74 30 0.0 1.0 0.00 0.00 0.00 81 1006.1
20260508000803 74 93 0.0 1.0 0.00 0.00 0.00 81 1006.1
20260508000702 74 93 0.0 1.0 0.00 0.00 0.00 81 1006.1
20260508000603 74 93 0.0 1.0 0.00 0.00 0.00 81 1006.1
20260508000504 74 93 0.0 1.0 0.00 0.00 0.00 81 1006.1
20260508000404 74 83 0.0 1.0 0.00 0.00 0.00 81 1006.2
20260508000305 74 83 0.0 1.0 0.00 0.00 0.00 81 1006.1
20260508000201 74 63 0.0 1.0 0.00 0.00 0.00 81 1006.1
20260508000003 74 63 0.0 1.0 0.00 0.00 0.00 81 1006.1
20260507235903 74 34 0.0 1.0 0.00 0.00 0.00 81 1006.1
20260507235803 74 34 0.0 1.0 0.00 0.00 0.00 81 1006.1
20260507235703 74 104 0.0 1.0 0.00 0.00 0.00 81 1006.2
20260507235603 74 104 0.0 1.0 0.00 0.00 0.00 81 1006.2
20260507235504 74 100 0.0 1.0 0.00 0.00 0.00 81 1006.2
20260507235403 74 103 0.0 1.0 0.00 0.00 0.00 81 1006.2
20260507235306 74 103 0.0 1.0 0.00 0.00 0.00 81 1006.2
20260507235202 74 92 0.0 0.0 0.00 0.00 0.00 81 1006.2
20260507235104 74 59 0.0 0.0 0.00 0.00 0.00 81 1006.2
20260507235002 75 86 0.0 0.0 0.00 0.00 0.00 81 1006.1
20260507234902 75 86 0.0 0.0 0.00 0.00 0.00 81 1006.2
20260507234801 75 86 0.0 0.0 0.00 0.00 0.00 81 1006.1
20260507234702 75 86 0.0 0.0 0.00 0.00 0.00 81 1006.1
20260507234603 75 97 0.0 0.0 0.00 0.00 0.00 81 1006.0
20260507234502 75 106 0.0 0.0 0.00 0.00 0.00 81 1006.0
20260507234403 75 106 0.0 0.0 0.00 0.00 0.00 81 1006.0
20260507234303 75 106 0.0 0.0 0.00 0.00 0.00 80 1006.1
20260507234203 75 106 0.0 0.0 0.00 0.00 0.00 80 1006.1
20260507234102 75 106 0.0 0.0 0.00 0.00 0.00 80 1006.2
20260507234005 75 106 0.0 1.0 0.00 0.00 0.00 81 1006.2
20260507233904 75 106 0.0 1.0 0.00 0.00 0.00 81 1006.2
20260507233801 75 97 0.0 1.0 0.00 0.00 0.00 81 1006.2
20260507233702 75 99 0.0 2.0 0.00 0.00 0.00 81 1006.3
20260507233604 75 97 0.0 2.0 0.00 0.00 0.00 80 1006.3
20260507233504 75 97 0.0 2.0 0.00 0.00 0.00 80 1006.2
20260507233403 75 97 0.0 2.0 0.00 0.00 0.00 80 1006.2
20260507233304 75 97 0.0 2.0 0.00 0.00 0.00 80 1006.2
20260507233203 75 97 0.0 2.0 0.00 0.00 0.00 80 1006.2
20260507233104 75 134 0.0 2.0 0.00 0.00 0.00 80 1006.2
20260507233002 75 109 0.0 2.0 0.00 0.00 0.00 81 1006.2
20260507232903 75 109 0.0 2.0 0.00 0.00 0.00 81 1006.2
20260507232803 75 100 0.0 2.0 0.00 0.00 0.00 81 1006.2
20260507232704 75 0 0.0 0.0 0.00 0.00 0.00 81 1006.2
20260507232605 75 0 0.0 0.0 0.00 0.00 0.00 81 1006.2
20260507232503 75 85 0.0 0.0 0.00 0.00 0.00 81 1006.2
20260507232404 75 85 0.0 0.0 0.00 0.00 0.00 81 1006.2
20260507232306 75 85 0.0 0.0 0.00 0.00 0.00 81 1006.2
20260507232202 75 102 0.0 0.0 0.00 0.00 0.00 81 1006.2
20260507232104 75 102 0.0 0.0 0.00 0.00 0.00 81 1006.2
20260507232004 75 79 0.0 0.0 0.00 0.00 0.00 81 1006.2
20260507231903 75 110 0.0 0.0 0.00 0.00 0.00 81 1006.3
20260507231802 75 110 0.0 0.0 0.00 0.00 0.00 81 1006.2
20260507231704 75 110 0.0 1.0 0.00 0.00 0.00 81 1006.2
20260507231609 75 87 0.0 1.0 0.00 0.00 0.00 81 1006.2
20260507231502 75 72 0.0 1.0 0.00 0.00 0.00 81 1006.2
20260507231404 75 72 0.0 1.0 0.00 0.00 0.00 81 1006.2
20260507231303 75 72 0.0 1.0 0.00 0.00 0.00 81 1006.2
20260507231204 75 72 0.0 1.0 0.00 0.00 0.00 81 1006.2
20260507231112 75 69 0.0 1.0 0.00 0.00 0.00 81 1006.1
20260507231003 75 100 0.0 1.0 0.00 0.00 0.00 81 1006.1
20260507230904 76 61 0.0 1.0 0.00 0.00 0.00 81 1006.1
20260507230803 76 79 0.0 1.0 0.00 0.00 0.00 81 1006.1
20260507230702 76 102 0.0 0.0 0.00 0.00 0.00 81 1006.1
20260507230602 76 102 0.0 0.0 0.00 0.00 0.00 81 1006.1
20260507230456 76 78 0.0 0.0 0.00 0.00 0.00 81 1006.2
20260507230353 76 63 0.0 0.0 0.00 0.00 0.00 81 1006.1
20260507230253 76 63 0.0 0.0 0.00 0.00 0.00 81 1006.2
20260507230151 76 63 0.0 0.0 0.00 0.00 0.00 81 1006.2
20260507230049 76 63 0.0 0.0 0.00 0.00 0.00 81 1006.3
20260507225946 76 63 0.0 0.0 0.00 0.00 0.00 81 1006.2
20260507225846 76 63 0.0 0.0 0.00 0.00 0.00 80 1006.2
20260507225734 76 63 0.0 0.0 0.00 0.00 0.00 80 1006.2
20260507225631 76 63 0.0 0.0 0.00 0.00 0.00 80 1006.2
20260507225531 76 63 0.0 0.0 0.00 0.00 0.00 80 1006.1
20260507225431 76 63 0.0 0.0 0.00 0.00 0.00 80 1006.1
20260507225331 76 63 0.0 0.0 0.00 0.00 0.00 80 1006.1
20260507225231 76 63 0.0 0.0 0.00 0.00 0.00 80 1006.0
20260507225132 76 61 0.0 0.0 0.00 0.00 0.00 80 1006.0
20260507225036 76 61 0.0 0.0 0.00 0.00 0.00 80 1006.0
20260507224933 76 63 0.0 0.0 0.00 0.00 0.00 80 1006.1
20260507224831 76 63 0.0 0.0 0.00 0.00 0.00 80 1006.1
20260507224733 76 66 0.0 0.0 0.00 0.00 0.00 80 1006.1
20260507224631 76 66 0.0 1.0 0.00 0.00 0.00 80 1006.1
20260507224535 76 66 0.0 1.0 0.00 0.00 0.00 80 1006.0
20260507224431 76 63 0.0 1.0 0.00 0.00 0.00 80 1006.0
20260507224333 76 63 0.0 1.0 0.00 0.00 0.00 80 1005.9
20260507224213 76 65 0.0 1.0 0.00 0.00 0.00 80 1005.9
20260507224112 76 73 0.0 1.0 0.00 0.00 0.00 80 1005.8
20260507224012 76 73 0.0 1.0 0.00 0.00 0.00 80 1005.8
20260507223911 76 79 0.0 1.0 0.00 0.00 0.00 80 1005.8
20260507223812 76 80 0.0 1.0 0.00 0.00 0.00 80 1005.7
20260507223711 76 79 0.0 1.0 0.00 0.00 0.00 80 1005.7
20260507223611 76 110 0.0 1.0 0.00 0.00 0.00 80 1005.6
20260507223510 76 110 0.0 1.0 0.00 0.00 0.00 80 1005.6
20260507223412 76 110 0.0 1.0 0.00 0.00 0.00 80 1005.6
20260507223311 76 68 0.0 0.0 0.00 0.00 0.00 80 1005.6
20260507223212 76 92 0.0 0.0 0.00 0.00 0.00 80 1005.6
20260507223106 76 6 0.0 0.0 0.00 0.00 0.00 80 1005.4
20260507223004 76 316 0.0 0.0 0.00 0.00 0.00 80 1005.4
20260507222903 76 316 0.0 0.0 0.00 0.00 0.00 80 1005.4
20260507222802 76 314 0.0 0.0 0.00 0.00 0.00 80 1005.4
20260507222702 76 27 0.0 0.0 0.00 0.00 0.00 80 1005.4
20260507222605 76 27 0.0 1.0 0.00 0.00 0.00 80 1005.4
20260507222513 76 27 0.0 1.0 0.00 0.00 0.00 80 1005.3
20260507222402 76 25 0.0 1.0 0.00 0.00 0.00 80 1005.3
20260507222306 76 34 0.0 1.0 0.00 0.00 0.00 79 1005.3
20260507222204 76 34 0.0 1.0 0.00 0.00 0.00 79 1005.4
20260507222103 76 34 0.0 1.0 0.00 0.00 0.00 80 1005.3
20260507222005 76 32 0.0 1.0 0.00 0.00 0.00 80 1005.4
20260507221904 76 32 0.0 1.0 0.00 0.00 0.00 80 1005.4
20260507221805 76 80 0.0 1.0 0.00 0.00 0.00 80 1005.4
20260507221703 76 82 0.0 1.0 0.00 0.00 0.00 80 1005.4
20260507221604 76 79 0.0 1.0 0.00 0.00 0.00 80 1005.5
20260507221504 76 348 0.0 0.0 0.00 0.00 0.00 80 1005.5
20260507221402 76 348 0.0 0.0 0.00 0.00 0.00 80 1005.6
20260507221303 76 347 0.0 0.0 0.00 0.00 0.00 80 1005.6
20260507221202 76 348 0.0 0.0 0.00 0.00 0.00 80 1005.6
20260507221102 76 348 0.0 0.0 0.00 0.00 0.00 80 1005.7
20260507221004 76 85 0.0 0.0 0.00 0.00 0.00 80 1005.7
20260507220903 76 85 0.0 0.0 0.00 0.00 0.00 80 1005.7
20260507220802 76 87 0.0 0.0 0.00 0.00 0.00 80 1005.7
20260507220711 76 68 0.0 0.0 0.00 0.00 0.00 80 1005.7
20260507220602 76 68 0.0 0.0 0.00 0.00 0.00 80 1005.7
20260507220503 76 27 0.0 0.0 0.00 0.00 0.00 80 1005.7
20260507220404 76 69 0.0 3.0 0.00 0.00 0.00 80 1005.7
20260507220302 76 68 0.0 3.0 0.00 0.00 0.00 79 1005.6
20260507220205 76 68 0.0 3.0 0.00 0.00 0.00 79 1005.7
20260507220002 76 68 0.0 3.0 0.00 0.00 0.00 79 1005.7
20260507215902 76 68 0.0 3.0 0.00 0.00 0.00 79 1005.7
20260507215803 76 68 0.0 3.0 0.00 0.00 0.00 80 1005.7
20260507215708 76 69 0.0 3.0 0.00 0.00 0.00 80 1005.7
20260507215602 76 69 0.0 3.0 0.00 0.00 0.00 80 1005.8
20260507215504 76 90 1.0 3.0 0.00 0.00 0.00 80 1005.8
20260507215405 76 114 0.0 2.0 0.00 0.00 0.00 80 1005.8
20260507215306 76 68 0.0 0.0 0.00 0.00 0.00 80 1005.8
20260507215204 76 127 0.0 0.0 0.00 0.00 0.00 79 1005.9
20260507215104 76 127 0.0 0.0 0.00 0.00 0.00 79 1005.9
20260507215003 76 80 0.0 0.0 0.00 0.00 0.00 79 1005.9
20260507214903 77 80 0.0 1.0 0.00 0.00 0.00 79 1005.8
20260507214803 76 80 0.0 1.0 0.00 0.00 0.00 79 1005.9
20260507214703 76 80 0.0 1.0 0.00 0.00 0.00 79 1005.8
20260507214603 77 80 0.0 1.0 0.00 0.00 0.00 79 1005.9
20260507214504 77 80 0.0 1.0 0.00 0.00 0.00 79 1005.9
20260507214403 77 80 0.0 1.0 0.00 0.00 0.00 79 1005.8
20260507214255 77 80 0.0 1.0 0.00 0.00 0.00 79 1005.9
20260507214153 77 80 0.0 1.0 0.00 0.00 0.00 79 1005.8
20260507214048 77 72 0.0 1.0 0.00 0.00 0.00 80 1005.9
20260507213941 77 83 0.0 1.0 0.00 0.00 0.00 80 1006.0
20260507213839 77 80 0.0 1.0 0.00 0.00 0.00 80 1005.9
20260507213731 77 103 0.0 1.0 0.00 0.00 0.00 80 1005.9
20260507213632 77 76 0.0 1.0 0.00 0.00 0.00 80 1006.0
20260507213531 77 76 0.0 1.0 0.00 0.00 0.00 80 1006.0
20260507213434 77 76 0.0 1.0 0.00 0.00 0.00 80 1006.0
20260507213333 77 96 0.0 1.0 0.00 0.00 0.00 79 1006.0
20260507213232 77 71 0.0 1.0 0.00 0.00 0.00 80 1005.9
20260507213136 77 71 0.0 1.0 0.00 0.00 0.00 80 1005.9
20260507213031 77 72 0.0 1.0 0.00 0.00 0.00 80 1005.9
20260507212932 77 90 0.0 1.0 0.00 0.00 0.00 80 1006.0
20260507212832 77 86 0.0 0.0 0.00 0.00 0.00 80 1006.0
20260507212733 77 86 0.0 0.0 0.00 0.00 0.00 80 1005.9
20260507212632 77 86 0.0 0.0 0.00 0.00 0.00 80 1006.0
20260507212531 77 85 0.0 1.0 0.00 0.00 0.00 80 1006.0
20260507212433 77 71 0.0 1.0 0.00 0.00 0.00 80 1006.0
20260507212331 77 71 0.0 1.0 0.00 0.00 0.00 80 1006.0
20260507212232 77 73 0.0 1.0 0.00 0.00 0.00 80 1006.0
20260507212127 77 73 0.0 1.0 0.00 0.00 0.00 80 1006.0
20260507212022 77 6 0.0 1.0 0.00 0.00 0.00 80 1005.9
20260507211921 77 6 0.0 2.0 0.00 0.00 0.00 80 1006.0
20260507211817 77 0 0.0 2.0 0.00 0.00 0.00 79 1005.9
20260507211710 77 0 0.0 2.0 0.00 0.00 0.00 79 1006.0
20260507211613 77 348 0.0 2.0 0.00 0.00 0.00 79 1005.9
20260507211511 77 97 0.0 2.0 0.00 0.00 0.00 80 1006.0
20260507211411 77 79 0.0 2.0 0.00 0.00 0.00 79 1006.0
20260507211309 77 38 0.0 2.0 0.00 0.00 0.00 79 1005.9
20260507211210 77 82 0.0 2.0 0.00 0.00 0.00 79 1006.0
20260507211111 77 82 0.0 2.0 0.00 0.00 0.00 80 1006.0
20260507211010 77 86 0.0 2.0 0.00 0.00 0.00 80 1006.1
20260507210910 77 69 0.0 0.0 0.00 0.00 0.00 80 1006.1
20260507210810 77 65 0.0 0.0 0.00 0.00 0.00 80 1006.1
20260507210708 77 62 0.0 0.0 0.00 0.00 0.00 80 1006.2
20260507210644 77 58 0.0 0.0 0.00 0.00 0.00 80 1006.2
20260507210510 77 47 0.0 0.0 0.00 0.00 0.00 80 1006.1
20260507210409 77 47 0.0 0.0 0.00 0.00 0.00 80 1006.2
20260507210310 77 47 0.0 0.0 0.00 0.00 0.00 80 1006.2
20260507210210 77 28 0.0 0.0 0.00 0.00 0.00 80 1006.2
20260507210109 77 28 0.0 0.0 0.00 0.00 0.00 80 1006.1
20260507210009 77 8 0.0 0.0 0.00 0.00 0.00 80 1006.2
20260507205910 77 4 0.0 0.0 0.00 0.00 0.00 80 1006.2
20260507205808 76 4 0.0 0.0 0.00 0.00 0.00 80 1006.3
20260507205708 77 3 0.0 0.0 0.00 0.00 0.00 80 1006.2
20260507205610 77 96 0.0 0.0 0.00 0.00 0.00 80 1006.3
20260507205510 77 94 0.0 0.0 0.00 0.00 0.00 80 1006.3
20260507205408 76 94 0.0 1.0 0.00 0.00 0.00 80 1006.3
20260507205310 76 56 0.0 1.0 0.00 0.00 0.00 79 1006.3
20260507205208 76 72 0.0 3.0 0.00 0.00 0.00 79 1006.4
20260507205108 76 72 0.0 5.0 0.00 0.00 0.00 79 1006.3
20260507205009 76 71 0.0 5.0 0.00 0.00 0.00 79 1006.4
20260507204909 76 71 0.0 5.0 0.00 0.00 0.00 79 1006.4
20260507204810 76 71 0.0 5.0 0.00 0.00 0.00 79 1006.4
20260507204708 76 140 0.0 5.0 0.00 0.00 0.00 79 1006.4
20260507204610 76 76 0.0 5.0 0.00 0.00 0.00 79 1006.4
20260507204509 76 94 0.0 5.0 0.00 0.00 0.00 79 1006.5
20260507204402 77 79 1.0 5.0 0.00 0.00 0.00 79 1006.6
20260507204305 77 79 2.0 5.0 0.00 0.00 0.00 79 1006.5
20260507204202 77 85 2.0 5.0 0.00 0.00 0.00 79 1006.5
20260507204106 77 44 2.0 5.0 0.00 0.00 0.00 80 1006.5
20260507204002 77 71 2.0 5.0 0.00 0.00 0.00 80 1006.5
20260507203903 77 13 1.0 3.0 0.00 0.00 0.00 80 1006.5
20260507203802 77 152 0.0 3.0 0.00 0.00 0.00 80 1006.4
20260507203704 77 56 0.0 2.0 0.00 0.00 0.00 80 1006.4
20260507203604 77 52 0.0 2.0 0.00 0.00 0.00 80 1006.4
20260507203505 77 49 0.0 2.0 0.00 0.00 0.00 80 1006.4
20260507203404 77 49 0.0 2.0 0.00 0.00 0.00 79 1006.5
20260507203301 77 49 0.0 2.0 0.00 0.00 0.00 79 1006.5
20260507203203 77 51 0.0 3.0 0.00 0.00 0.00 79 1006.5
20260507203106 77 16 0.0 3.0 0.00 0.00 0.00 80 1006.5
20260507203003 77 86 0.0 3.0 0.00 0.00 0.00 79 1006.6
20260507202903 77 87 0.0 3.0 0.00 0.00 0.00 79 1006.7
20260507202803 77 39 0.0 3.0 0.00 0.00 0.00 79 1006.7
20260507202702 77 39 0.0 3.0 0.00 0.00 0.00 79 1006.7
20260507202604 77 79 0.0 3.0 0.00 0.00 0.00 79 1006.7
20260507202504 77 79 0.0 3.0 0.00 0.00 0.00 79 1006.7
20260507202403 77 79 0.0 3.0 0.00 0.00 0.00 79 1006.7
20260507202306 77 76 0.0 3.0 0.00 0.00 0.00 79 1006.7
20260507202203 76 54 0.0 0.0 0.00 0.00 0.00 79 1006.6
20260507202103 77 54 0.0 1.0 0.00 0.00 0.00 79 1006.7
20260507202004 77 54 0.0 1.0 0.00 0.00 0.00 79 1006.7
20260507201904 77 55 0.0 1.0 0.00 0.00 0.00 79 1006.7
20260507201802 77 78 0.0 1.0 0.00 0.00 0.00 80 1006.6
20260507201702 77 55 0.0 1.0 0.00 0.00 0.00 80 1006.6
20260507201603 77 21 0.0 1.0 0.00 0.00 0.00 80 1006.6
20260507201502 77 11 0.0 1.0 0.00 0.00 0.00 80 1006.6
20260507201401 77 312 0.0 1.0 0.00 0.00 0.00 80 1006.6
20260507201302 77 300 0.0 1.0 0.00 0.00 0.00 80 1006.7
20260507201202 76 330 0.0 1.0 0.00 0.00 0.00 81 1006.8
20260507201102 76 82 0.0 1.0 0.00 0.00 0.00 81 1006.7
20260507201003 76 90 0.0 1.0 0.00 0.00 0.00 80 1006.7
20260507200901 76 90 0.0 1.0 0.00 0.00 0.00 80 1006.7
20260507200757 76 353 0.0 1.0 0.00 0.00 0.00 80 1006.7
20260507200655 76 106 0.0 1.0 0.00 0.00 0.00 80 1006.7
20260507200553 76 111 0.0 2.0 0.00 0.00 0.00 80 1006.7
20260507200444 76 76 0.0 4.0 0.00 0.00 0.00 81 1006.7
20260507200343 76 298 0.0 4.0 0.00 0.00 0.00 81 1006.7
20260507200237 76 78 0.0 4.0 0.00 0.00 0.00 81 1006.6
20260507200133 76 78 0.0 4.0 0.00 0.00 0.00 80 1006.6
20260507200032 76 78 0.0 4.0 0.00 0.00 0.00 80 1006.7
20260507195932 76 78 0.0 4.0 0.00 0.00 0.00 80 1006.7
20260507195833 76 76 0.0 4.0 0.00 0.00 0.00 80 1006.6
20260507195732 76 76 0.0 4.0 0.00 0.00 0.00 80 1006.6
20260507195632 76 127 0.0 4.0 0.00 0.00 0.00 80 1006.7
20260507195522 76 83 0.0 4.0 0.00 0.00 0.00 80 1006.7
20260507195417 76 138 0.0 4.0 0.00 0.00 0.00 80 1006.8
20260507195316 76 141 0.0 4.0 0.00 0.00 0.00 80 1006.8
20260507195209 76 28 0.0 6.0 0.00 0.00 0.00 80 1006.8
20260507195112 76 92 0.0 6.0 0.00 0.00 0.00 80 1006.8
20260507195009 76 89 0.0 6.0 0.00 0.00 0.00 80 1006.8
20260507194908 76 121 0.0 6.0 0.00 0.00 0.00 80 1006.8
20260507194806 76 121 0.0 6.0 0.00 0.00 0.00 80 1006.8
20260507194708 76 120 0.0 6.0 0.00 0.00 0.00 80 1006.8
20260507194608 76 96 0.0 6.0 0.00 0.00 0.00 80 1006.8
20260507194507 76 93 1.0 6.0 0.00 0.00 0.00 80 1006.9
20260507194406 76 34 3.0 6.0 0.00 0.00 0.00 80 1007.0
20260507194306 76 109 2.0 6.0 0.00 0.00 0.00 80 1007.0
20260507194206 76 82 0.0 6.0 0.00 0.00 0.00 80 1007.1
20260507194108 76 113 0.0 6.0 0.00 0.00 0.00 80 1007.1
20260507194008 76 114 0.0 6.0 0.00 0.00 0.00 80 1007.1
20260507193906 76 38 0.0 6.0 0.00 0.00 0.00 80 1007.2
20260507193806 76 109 0.0 6.0 0.00 0.00 0.00 80 1007.1
20260507193706 76 110 0.0 6.0 0.00 0.00 0.00 80 1007.2
20260507193606 76 104 2.0 6.0 0.00 0.00 0.00 80 1007.3
20260507193507 76 62 2.0 6.0 0.00 0.00 0.00 81 1007.3
20260507193408 76 73 0.0 7.0 0.00 0.00 0.00 81 1007.4
20260507193307 76 38 1.0 7.0 0.00 0.00 0.00 81 1007.4
20260507193208 76 82 1.0 7.0 0.00 0.00 0.00 81 1007.3
20260507193106 76 144 1.0 7.0 0.00 0.00 0.00 81 1007.3
20260507193008 75 75 0.0 7.0 0.00 0.00 0.00 81 1007.1
20260507192907 75 72 0.0 7.0 0.00 0.00 0.00 81 1007.1
20260507192807 75 72 0.0 7.0 0.00 0.00 0.00 81 1007.0
20260507192708 75 69 1.0 7.0 0.00 0.00 0.00 81 1007.0
20260507192606 75 337 2.0 7.0 0.00 0.00 0.00 80 1007.0
20260507192508 75 17 2.0 7.0 0.00 0.00 0.00 81 1006.9
20260507192403 75 117 0.0 3.0 0.00 0.00 0.00 81 1007.0
20260507192306 75 231 0.0 0.0 0.00 0.00 0.00 82 1007.0
20260507192203 75 107 0.0 0.0 0.00 0.00 0.00 82 1007.0
20260507192103 75 18 0.0 0.0 0.00 0.00 0.00 82 1007.0
20260507192002 75 18 0.0 0.0 0.00 0.00 0.00 82 1007.0
20260507191904 75 18 0.0 0.0 0.00 0.00 0.00 82 1007.0
20260507191802 75 55 0.0 0.0 0.00 0.00 0.00 82 1007.0
20260507191703 75 61 0.0 0.0 0.00 0.00 0.00 82 1007.0
20260507191602 75 300 0.0 3.0 0.00 0.00 0.00 82 1007.0
20260507191503 74 300 0.0 3.0 0.00 0.00 0.00 82 1007.0
20260507191405 74 79 0.0 3.0 0.00 0.00 0.00 82 1007.0
20260507191302 74 42 0.0 3.0 0.00 0.00 0.00 82 1007.1
20260507191203 74 41 0.0 3.0 0.00 0.00 0.00 82 1007.1
20260507191104 74 44 0.0 3.0 0.00 0.00 0.00 82 1007.2
20260507191005 74 6 0.0 3.0 0.00 0.00 0.00 82 1007.2
20260507190902 74 155 0.0 3.0 0.00 0.00 0.00 82 1007.2
20260507190803 74 127 0.0 3.0 0.00 0.00 0.00 82 1007.3
20260507190702 74 138 0.0 3.0 0.00 0.00 0.00 82 1007.3
20260507190603 74 82 0.0 3.0 0.00 0.00 0.00 82 1007.3
20260507190501 74 76 0.0 3.0 0.00 0.00 0.00 82 1007.4
20260507190404 74 71 0.0 3.0 0.00 0.00 0.00 82 1007.5
20260507190304 74 157 0.0 3.0 0.00 0.00 0.00 83 1007.5
20260507190204 74 157 0.0 3.0 0.00 0.00 0.00 83 1007.5
20260507190005 73 65 0.0 3.0 0.00 0.00 0.00 82 1007.7
20260507185904 73 65 0.0 3.0 0.00 0.00 0.00 82 1007.9
20260507185803 73 69 0.0 3.0 0.00 0.00 0.00 82 1007.9
20260507185702 73 51 0.0 3.0 0.00 0.00 0.00 83 1007.9
20260507185603 73 141 0.0 0.0 0.00 0.00 0.00 83 1007.8
20260507185502 73 83 0.0 0.0 0.00 0.00 0.00 84 1007.8
20260507185405 73 83 0.0 1.0 0.00 0.00 0.00 84 1007.7
20260507185305 73 82 0.0 1.0 0.00 0.00 0.00 84 1007.7
20260507185201 73 55 0.0 1.0 0.00 0.00 0.00 83 1007.7
20260507185104 73 55 0.0 1.0 0.00 0.00 0.00 83 1007.7
20260507185004 73 55 0.0 1.0 0.00 0.00 0.00 83 1007.8
20260507184902 73 89 0.0 1.0 0.00 0.00 0.00 83 1007.8
20260507184804 73 89 0.0 3.0 0.00 0.00 0.00 83 1007.9
20260507184704 73 90 0.0 3.0 0.00 0.00 0.00 83 1007.9
20260507184603 73 90 0.0 3.0 0.00 0.00 0.00 84 1007.9
20260507184504 73 75 0.0 3.0 0.00 0.00 0.00 84 1008.1
20260507184404 73 30 0.0 3.0 0.00 0.00 0.00 84 1008.0
20260507184304 72 75 0.0 3.0 0.00 0.00 0.00 84 1008.0
20260507184204 72 75 0.0 3.0 0.00 0.00 0.00 83 1008.0
20260507184103 72 102 0.0 3.0 0.00 0.00 0.00 83 1008.1
20260507184001 72 127 0.0 3.0 0.00 0.00 0.00 83 1008.2
20260507183857 72 130 0.0 3.0 0.00 0.00 0.00 83 1008.2
20260507183752 72 357 0.0 2.0 0.00 0.00 0.00 83 1008.2
20260507183647 72 75 0.0 2.0 0.00 0.00 0.00 83 1008.2
20260507183543 72 97 0.0 2.0 0.00 0.00 0.00 83 1008.1
20260507183438 72 0 0.0 2.0 0.00 0.00 0.00 83 1008.0
20260507183332 72 79 0.0 4.0 0.00 0.00 0.00 83 1008.0
20260507183232 72 79 0.0 4.0 0.00 0.00 0.00 83 1007.9
20260507183132 72 75 0.0 4.0 0.00 0.00 0.00 83 1007.9
20260507183033 72 79 0.0 4.0 0.00 0.00 0.00 84 1008.0
20260507182933 72 79 0.0 4.0 0.00 0.00 0.00 84 1008.0
20260507182833 72 79 0.0 4.0 0.00 0.00 0.00 84 1008.0
20260507182733 72 290 0.0 4.0 0.00 0.00 0.00 84 1008.2
20260507182632 72 86 0.0 4.0 0.00 0.00 0.00 84 1008.2
20260507182531 72 34 1.0 4.0 0.00 0.00 0.00 84 1008.2
20260507182424 71 93 1.0 4.0 0.00 0.00 0.00 85 1008.2
20260507182318 71 192 1.0 4.0 0.00 0.00 0.00 84 1008.2
20260507182219 71 296 2.0 4.0 0.00 0.00 0.00 84 1008.2
20260507182113 71 66 2.0 4.0 0.00 0.00 0.00 84 1008.3
20260507182007 71 27 1.0 3.0 0.00 0.00 0.00 84 1008.3
20260507181906 71 94 0.0 3.0 0.00 0.00 0.00 84 1008.2
20260507181804 71 96 1.0 3.0 0.00 0.00 0.00 84 1008.1
20260507181706 71 286 0.0 3.0 0.00 0.00 0.00 84 1008.1
20260507181604 71 144 0.0 3.0 0.00 0.00 0.00 84 1008.1
20260507181504 71 173 0.0 3.0 0.00 0.00 0.00 84 1008.1
20260507181405 71 82 0.0 3.0 0.00 0.00 0.00 84 1008.1
20260507181304 71 63 0.0 3.0 0.00 0.00 0.00 84 1008.0
20260507181205 71 68 0.0 3.0 0.00 0.00 0.00 85 1008.1
20260507181106 71 78 0.0 1.0 0.00 0.00 0.00 85 1008.2
20260507181006 71 121 0.0 1.0 0.00 0.00 0.00 85 1008.2
20260507180904 71 118 0.0 1.0 0.00 0.00 0.00 85 1008.2
20260507180804 71 348 0.0 5.0 0.00 0.00 0.00 85 1008.3
20260507180706 71 75 0.0 5.0 0.00 0.00 0.00 85 1008.3
20260507180604 71 293 0.0 5.0 0.00 0.00 0.00 85 1008.2
20260507180505 71 61 0.0 5.0 0.00 0.00 0.00 85 1008.2
20260507180404 71 357 0.0 5.0 0.00 0.00 0.00 85 1008.3
20260507180304 71 99 0.0 5.0 0.00 0.00 0.00 86 1008.3
20260507180209 71 55 0.0 5.0 0.00 0.00 0.00 86 1008.3
20260507180104 70 90 0.0 5.0 0.00 0.00 0.00 86 1008.3
20260507180004 70 202 1.0 5.0 0.00 0.00 0.00 86 1008.4
20260507175905 70 121 1.0 5.0 0.00 0.00 0.00 86 1008.4
20260507175804 70 49 0.0 5.0 0.00 0.00 0.00 86 1008.5
20260507175705 70 69 0.0 5.0 0.00 0.00 0.00 86 1008.5
20260507175606 70 341 0.0 5.0 0.00 0.00 0.00 86 1008.5
20260507175505 70 348 0.0 5.0 0.00 0.00 0.00 86 1008.5
20260507175404 70 151 0.0 5.0 0.00 0.00 0.00 86 1008.5
20260507175307 70 313 0.0 5.0 0.00 0.00 0.00 86 1008.5
20260507175207 70 243 0.0 5.0 0.00 0.00 0.00 86 1008.4
20260507175104 70 114 2.0 5.0 0.00 0.00 0.00 86 1008.6
20260507175005 70 14 2.0 5.0 0.00 0.00 0.00 87 1008.5
20260507174905 70 221 1.0 5.0 0.00 0.00 0.00 87 1008.6
20260507174804 70 47 0.0 5.0 0.00 0.00 0.00 87 1008.6
20260507174707 69 87 0.0 5.0 0.00 0.00 0.00 87 1008.6
20260507174605 69 89 0.0 5.0 0.00 0.00 0.00 87 1008.5
20260507174505 69 104 0.0 5.0 0.00 0.00 0.00 87 1008.6
20260507174404 69 290 0.0 5.0 0.00 0.00 0.00 87 1008.6
20260507174304 69 52 0.0 5.0 0.00 0.00 0.00 87 1008.6
20260507174210 69 52 1.0 5.0 0.00 0.00 0.00 87 1008.6
20260507174103 69 61 0.0 3.0 0.00 0.00 0.00 87 1008.6
20260507174006 69 90 0.0 0.0 0.00 0.00 0.00 87 1008.6
20260507173904 69 128 0.0 0.0 0.00 0.00 0.00 87 1008.6
20260507173804 69 230 0.0 1.0 0.00 0.00 0.00 87 1008.6
20260507173705 69 231 0.0 1.0 0.00 0.00 0.00 88 1008.6
20260507173604 69 230 0.0 1.0 0.00 0.00 0.00 88 1008.6
20260507173503 69 221 0.0 1.0 0.00 0.00 0.00 88 1008.6
20260507173404 69 347 0.0 1.0 0.00 0.00 0.00 88 1008.7
20260507173303 69 347 0.0 1.0 0.00 0.00 0.00 87 1008.8
20260507173203 69 329 0.0 1.0 0.00 0.00 0.00 88 1008.8
20260507173106 69 75 0.0 1.0 0.00 0.00 0.00 88 1008.9
20260507173005 69 72 0.0 1.0 0.00 0.00 0.00 87 1009.0
20260507172904 69 34 0.0 1.0 0.00 0.00 0.00 87 1009.0
20260507172804 69 72 0.0 0.0 0.00 0.00 0.00 87 1009.1
20260507172706 69 73 0.0 0.0 0.00 0.00 0.00 87 1009.0
20260507172604 69 72 0.0 0.0 0.00 0.00 0.00 87 1009.0
20260507172503 69 86 0.0 0.0 0.00 0.00 0.00 87 1009.1
20260507172404 69 7 0.0 0.0 0.00 0.00 0.00 88 1009.1
20260507172307 69 80 0.0 0.0 0.00 0.00 0.00 88 1009.2
20260507172204 69 82 0.0 0.0 0.00 0.00 0.00 88 1009.1
20260507172103 68 63 0.0 0.0 0.00 0.00 0.00 88 1009.1
20260507172003 68 63 0.0 0.0 0.00 0.00 0.00 88 1009.1
20260507171903 68 0 0.0 4.0 0.00 0.00 0.00 88 1009.1
20260507171804 68 56 0.0 4.0 0.00 0.00 0.00 88 1009.1
20260507171703 68 65 0.0 4.0 0.00 0.00 0.00 88 1009.1
20260507171603 68 65 0.0 4.0 0.00 0.00 0.00 88 1009.1
20260507171505 68 85 0.0 4.0 0.00 0.00 0.00 88 1009.1
20260507171403 68 100 0.0 4.0 0.00 0.00 0.00 88 1009.2
20260507171303 68 93 0.0 4.0 0.00 0.00 0.00 88 1009.1
20260507171203 68 100 0.0 4.0 0.00 0.00 0.00 88 1009.2
20260507171103 68 241 0.0 4.0 0.00 0.00 0.00 88 1009.2
20260507171005 68 85 0.0 4.0 0.00 0.00 0.00 88 1009.3
20260507170903 68 111 0.0 3.0 0.00 0.00 0.00 88 1009.4
20260507170803 68 97 0.0 3.0 0.00 0.00 0.00 88 1009.3
20260507170705 68 97 0.0 3.0 0.00 0.00 0.00 88 1009.4
20260507170603 68 97 0.0 3.0 0.00 0.00 0.00 88 1009.3
20260507170504 68 100 0.0 3.0 0.00 0.00 0.00 89 1009.3
20260507170404 68 0 0.0 3.0 0.00 0.00 0.00 89 1009.4
20260507170304 68 66 0.0 2.0 0.00 0.00 0.00 89 1009.2
20260507170204 68 61 0.0 5.0 0.00 0.00 0.00 89 1009.2
20260507170103 68 89 0.0 5.0 0.00 0.00 0.00 89 1009.2
20260507170005 68 89 0.0 5.0 0.00 0.00 0.00 89 1009.1
20260507165903 68 89 0.0 5.0 0.00 0.00 0.00 90 1008.9
20260507165804 68 86 0.0 5.0 0.00 0.00 0.00 90 1009.0
20260507165707 67 347 0.0 5.0 0.00 0.00 0.00 89 1009.0
20260507165603 67 345 0.0 5.0 0.00 0.00 0.00 90 1009.0
20260507165506 67 350 0.0 5.0 0.00 0.00 0.00 90 1009.0
20260507165404 67 272 1.0 5.0 0.00 0.00 0.00 90 1009.0
20260507165306 67 47 1.0 5.0 0.00 0.00 0.00 90 1009.0
20260507165205 67 71 0.0 3.0 0.00 0.00 0.00 90 1008.9
20260507165103 67 78 0.0 3.0 0.00 0.00 0.00 90 1008.9
20260507165003 67 20 0.0 3.0 0.00 0.00 0.00 90 1008.9
20260507164903 67 340 0.0 3.0 0.00 0.00 0.00 90 1008.9
20260507164802 67 341 0.0 3.0 0.00 0.00 0.00 90 1009.0
20260507164706 67 338 0.0 3.0 0.00 0.00 0.00 90 1009.0
20260507164603 67 47 0.0 3.0 0.00 0.00 0.00 90 1008.9
20260507164504 67 90 1.0 3.0 0.00 0.00 0.00 90 1008.9
20260507164403 67 80 0.0 3.0 0.00 0.00 0.00 90 1008.9
20260507164302 67 134 0.0 3.0 0.00 0.00 0.00 90 1009.0
20260507164202 67 323 0.0 4.0 0.00 0.00 0.00 90 1008.8
20260507164104 66 114 0.0 4.0 0.00 0.00 0.00 90 1008.8
20260507164005 66 103 0.0 5.0 0.00 0.00 0.00 91 1008.8
20260507163903 66 302 0.0 5.0 0.00 0.00 0.00 91 1008.8
20260507163804 66 179 0.0 5.0 0.00 0.00 0.00 90 1008.8
20260507163703 66 134 1.0 5.0 0.00 0.00 0.00 90 1008.8
20260507163602 66 147 1.0 5.0 0.00 0.00 0.00 90 1008.8
20260507163503 66 104 1.0 5.0 0.00 0.00 0.00 90 1008.9
20260507163403 66 72 2.0 5.0 0.00 0.00 0.00 91 1008.9
20260507163302 66 99 2.0 5.0 0.00 0.00 0.00 91 1008.9
20260507163202 66 42 2.0 6.0 0.00 0.00 0.00 91 1008.9
20260507163104 66 93 2.0 6.0 0.00 0.00 0.00 91 1008.9
20260507163004 66 41 0.0 6.0 0.00 0.00 0.00 91 1008.9
20260507162903 66 142 0.0 6.0 0.00 0.00 0.00 91 1008.8
20260507162802 65 92 0.0 6.0 0.00 0.00 0.00 91 1008.8
20260507162704 65 90 0.0 6.0 0.00 0.00 0.00 91 1008.8
20260507162603 65 120 0.0 6.0 0.00 0.00 0.00 92 1008.7
20260507162504 65 121 0.0 6.0 0.00 0.00 0.00 92 1008.8
20260507162402 65 76 2.0 6.0 0.00 0.00 0.00 92 1008.8
20260507162306 65 68 2.0 6.0 0.00 0.00 0.00 92 1008.7
20260507162204 65 320 0.0 4.0 0.00 0.00 0.00 92 1008.7
20260507162102 65 96 0.0 4.0 0.00 0.00 0.00 92 1008.7
20260507162003 65 94 0.0 4.0 0.00 0.00 0.00 92 1008.7
20260507161902 65 94 0.0 4.0 0.00 0.00 0.00 92 1008.7
20260507161803 65 94 0.0 4.0 0.00 0.00 0.00 92 1008.6
20260507161702 65 93 1.0 4.0 0.00 0.00 0.00 92 1008.5
20260507161604 65 104 2.0 6.0 0.00 0.00 0.00 92 1008.5
20260507161502 65 17 1.0 6.0 0.00 0.00 0.00 92 1008.5
20260507161402 65 83 0.0 6.0 0.00 0.00 0.00 92 1008.4
20260507161303 65 85 1.0 6.0 0.00 0.00 0.00 92 1008.5
20260507161203 65 59 1.0 6.0 0.00 0.00 0.00 93 1008.4
20260507161103 65 319 1.0 6.0 0.00 0.00 0.00 93 1008.4
20260507161003 64 65 0.0 6.0 0.00 0.00 0.00 93 1008.5
20260507160859 64 27 0.0 6.0 0.00 0.00 0.00 93 1008.5
20260507160757 64 169 2.0 6.0 0.00 0.00 0.00 94 1008.6
20260507160652 64 83 3.0 6.0 0.00 0.00 0.00 94 1008.6
20260507160551 64 85 2.0 4.0 0.00 0.00 0.00 94 1008.6
20260507160449 64 111 0.0 4.0 0.00 0.00 0.00 94 1008.6
20260507160348 64 92 1.0 4.0 0.00 0.00 0.00 94 1008.6
20260507160248 64 92 1.0 4.0 0.00 0.00 0.00 94 1008.5
20260507160146 64 79 0.0 4.0 0.00 0.00 0.00 94 1008.6
20260507160044 64 66 1.0 4.0 0.00 0.00 0.00 94 1008.6
20260507155943 64 68 1.0 4.0 0.00 0.00 0.00 94 1008.5
20260507155841 64 59 1.0 4.0 0.00 0.00 0.00 94 1008.5
20260507155738 64 165 2.0 4.0 0.00 0.00 0.00 94 1008.4
20260507155637 64 173 2.0 4.0 0.00 0.00 0.00 95 1008.5
20260507155533 64 130 1.0 2.0 0.00 0.00 0.00 95 1008.5
20260507155432 63 354 1.0 4.0 0.00 0.00 0.00 94 1008.4
20260507155332 63 86 0.0 4.0 0.00 0.00 0.00 94 1008.4
20260507155231 63 72 0.0 4.0 0.00 0.00 0.00 94 1008.4
20260507155133 63 72 0.0 5.0 0.00 0.00 0.00 94 1008.4
20260507155032 63 69 0.0 5.0 0.00 0.00 0.00 94 1008.3
20260507154933 63 69 0.0 5.0 0.00 0.00 0.00 94 1008.3
20260507154832 63 71 0.0 5.0 0.00 0.00 0.00 94 1008.3
20260507154731 63 63 0.0 5.0 0.00 0.00 0.00 94 1008.3
20260507154634 63 27 1.0 5.0 0.00 0.00 0.00 94 1008.2
20260507154531 63 25 1.0 5.0 0.00 0.00 0.00 94 1008.1
20260507154429 63 65 0.0 5.0 0.00 0.00 0.00 94 1008.2
20260507154323 63 45 1.0 5.0 0.00 0.00 0.00 94 1008.1
20260507154219 63 80 1.0 6.0 0.00 0.00 0.00 94 1008.2
20260507154113 63 3 0.0 6.0 0.00 0.00 0.00 94 1008.1
20260507154011 62 106 0.0 6.0 0.00 0.00 0.00 94 1008.1
20260507153904 63 45 1.0 6.0 0.00 0.00 0.00 94 1008.1
20260507153802 62 47 0.0 6.0 0.00 0.00 0.00 94 1008.2
20260507153705 62 120 0.0 6.0 0.00 0.00 0.00 94 1008.2
20260507153603 62 123 1.0 6.0 0.00 0.00 0.00 94 1008.2
20260507153505 62 355 2.0 6.0 0.00 0.00 0.00 95 1008.2
20260507153403 62 125 3.0 6.0 0.00 0.00 0.00 95 1008.2
20260507153303 62 140 2.0 6.0 0.00 0.00 0.00 95 1008.3
20260507153204 62 147 1.0 4.0 0.00 0.00 0.00 95 1008.3
20260507153102 62 71 1.0 4.0 0.00 0.00 0.00 95 1008.3
20260507153004 62 56 1.0 4.0 0.00 0.00 0.00 95 1008.4
20260507152902 62 71 1.0 6.0 0.00 0.00 0.00 95 1008.4
20260507152802 62 87 1.0 6.0 0.00 0.00 0.00 95 1008.4
20260507152703 62 96 1.0 6.0 0.00 0.00 0.00 95 1008.5
20260507152604 62 42 1.0 6.0 0.00 0.00 0.00 95 1008.5
20260507152504 62 140 1.0 6.0 0.00 0.00 0.00 95 1008.5
20260507152402 62 80 1.0 6.0 0.00 0.00 0.00 95 1008.5
20260507152306 62 102 1.0 6.0 0.00 0.00 0.00 95 1008.6
20260507152202 62 73 1.0 6.0 0.00 0.00 0.00 95 1008.7
20260507152103 62 66 2.0 6.0 0.00 0.00 0.00 95 1008.6
20260507152003 62 73 3.0 6.0 0.00 0.00 0.00 95 1008.7
20260507151901 62 48 1.0 5.0 0.00 0.00 0.00 95 1008.6
20260507151800 62 134 0.0 5.0 0.00 0.00 0.00 95 1008.7
20260507151700 62 114 0.0 5.0 0.00 0.00 0.00 95 1008.7
20260507151601 62 59 0.0 5.0 0.00 0.00 0.00 95 1008.7
20260507151501 62 42 1.0 6.0 0.00 0.00 0.00 95 1008.7
20260507151402 62 76 2.0 6.0 0.00 0.00 0.00 95 1008.6
20260507151300 62 55 1.0 6.0 0.00 0.00 0.00 95 1008.5
20260507151201 62 107 1.0 6.0 0.00 0.00 0.00 95 1008.5
20260507151103 62 107 2.0 6.0 0.00 0.00 0.00 95 1008.4
20260507151000 62 89 1.0 6.0 0.00 0.00 0.00 95 1008.4
20260507150901 62 109 0.0 6.0 0.00 0.00 0.00 95 1008.4
20260507150802 62 109 1.0 9.0 0.00 0.00 0.00 95 1008.4
20260507150705 62 110 2.0 9.0 0.00 0.00 0.00 95 1008.4
20260507150600 62 140 2.0 9.0 0.00 0.00 0.00 95 1008.4
20260507150503 62 85 1.0 9.0 0.00 0.00 0.00 95 1008.4
20260507150400 62 286 1.0 9.0 0.00 0.00 0.00 95 1008.4
20260507150300 62 107 2.0 9.0 0.00 0.00 0.00 95 1008.4
20260507150202 62 80 0.0 9.0 0.00 0.00 0.00 95 1008.4
20260507150100 62 83 0.0 9.0 0.00 0.00 0.00 95 1008.3
20260507150001 62 83 3.0 9.0 0.00 0.00 0.00 96 1008.3
20260507145902 62 68 4.0 9.0 0.00 0.00 0.00 96 1008.2
20260507145801 62 78 3.0 9.0 0.00 0.00 0.00 96 1008.3
20260507145700 62 58 1.0 9.0 0.00 0.00 0.00 96 1008.2
20260507145603 62 271 0.0 6.0 0.00 0.00 0.00 96 1008.3
20260507145501 62 271 1.0 6.0 0.00 0.00 0.00 96 1008.2
20260507145401 61 85 1.0 7.0 0.00 0.00 0.00 96 1008.2
20260507145300 61 85 1.0 7.0 0.00 0.00 0.00 96 1008.2
20260507145203 62 63 0.0 7.0 0.00 0.00 0.00 96 1008.2
20260507145100 61 353 0.0 7.0 0.00 0.00 0.00 96 1008.2
20260507145000 61 353 0.0 7.0 0.00 0.00 0.00 96 1008.3
20260507144902 61 76 1.0 7.0 0.00 0.00 0.00 96 1008.3
20260507144801 61 82 1.0 7.0 0.00 0.00 0.00 96 1008.4
20260507144700 61 0 1.0 7.0 0.00 0.00 0.00 96 1008.4
20260507144601 61 66 3.0 7.0 0.00 0.00 0.00 96 1008.4
20260507144502 61 80 2.0 7.0 0.00 0.00 0.00 96 1008.5
20260507144402 61 90 1.0 7.0 0.00 0.00 0.00 96 1008.5
20260507144301 61 107 1.0 7.0 0.00 0.00 0.00 96 1008.5
20260507144202 61 80 1.0 11.0 0.00 0.00 0.00 96 1008.5
20260507144127 61 92 3.0 11.0 0.00 0.00 0.00 96 1008.5
20260507144116 61 127 1.0 11.0 0.00 0.00 0.00 96 1008.5
20260507144051 61 11 1.0 11.0 0.00 0.00 0.00 96 1008.6
20260507144031 61 0 2.0 11.0 0.00 0.00 0.00 96 1008.5
20260507143700 61 94 3.0 11.0 0.00 0.00 0.00 96 1008.5
20260507143600 61 61 1.0 11.0 0.00 0.00 0.00 96 1008.4
20260507143502 61 75 1.0 11.0 0.00 0.00 0.00 96 1008.4
20260507143400 61 75 3.0 11.0 0.00 0.00 0.00 97 1008.4
20260507143259 61 327 3.0 11.0 0.00 0.00 0.00 97 1008.4
20260507143201 61 0 3.0 10.0 0.00 0.00 0.00 97 1008.5
20260507143059 61 41 3.0 10.0 0.00 0.00 0.00 97 1008.4
20260507143000 61 109 4.0 10.0 0.00 0.00 0.00 97 1008.5
20260507142901 61 92 2.0 10.0 0.00 0.00 0.00 97 1008.4
20260507142801 61 72 2.0 10.0 0.00 0.00 0.00 97 1008.4
20260507142659 61 7 2.0 10.0 0.00 0.00 0.00 97 1008.4
20260507142601 61 116 1.0 4.0 0.00 0.00 0.00 97 1008.4
20260507142501 61 116 1.0 4.0 0.00 0.00 0.00 97 1008.4
20260507142359 61 0 1.0 4.0 0.00 0.00 0.00 97 1008.4
20260507142300 61 148 0.0 3.0 0.00 0.00 0.00 97 1008.5
20260507142159 61 133 0.0 3.0 0.00 0.00 0.00 97 1008.5
20260507142101 61 131 1.0 3.0 0.00 0.00 0.00 97 1008.5
20260507142000 61 133 1.0 3.0 0.00 0.00 0.00 97 1008.5
20260507141900 61 147 0.0 4.0 0.00 0.00 0.00 97 1008.5
20260507141759 61 175 1.0 4.0 0.00 0.00 0.00 97 1008.4
20260507141700 61 111 1.0 4.0 0.00 0.00 0.00 97 1008.4
20260507141600 61 4 0.0 5.0 0.00 0.00 0.00 97 1008.4
20260507141459 61 138 0.0 5.0 0.00 0.00 0.00 97 1008.4
20260507141400 61 121 0.0 5.0 0.00 0.00 0.00 97 1008.4
20260507141300 61 127 0.0 6.0 0.00 0.00 0.00 97 1008.4
20260507141159 61 90 0.0 7.0 0.00 0.00 0.00 97 1008.5
20260507141059 61 340 0.0 7.0 0.00 0.00 0.00 97 1008.4
20260507141000 61 8 0.0 7.0 0.00 0.00 0.00 97 1008.4
20260507140859 61 80 0.0 7.0 0.00 0.00 0.00 97 1008.4
20260507140757 61 75 0.0 7.0 0.00 0.00 0.00 97 1008.4
20260507140653 61 79 0.0 7.0 0.00 0.00 0.00 97 1008.5
20260507140554 61 168 1.0 7.0 0.00 0.00 0.00 97 1008.4
20260507140444 61 87 1.0 7.0 0.00 0.00 0.00 97 1008.4
20260507140339 61 58 1.0 7.0 0.00 0.00 0.00 97 1008.5
20260507140241 61 96 1.0 7.0 0.00 0.00 0.00 97 1008.5
20260507140135 61 44 0.0 4.0 0.00 0.00 0.00 97 1008.6
20260507140031 61 109 0.0 4.0 0.00 0.00 0.00 97 1008.6
20260507135932 61 42 1.0 5.0 0.00 0.00 0.00 97 1008.6
20260507135831 61 87 0.0 5.0 0.00 0.00 0.00 97 1008.6
20260507135732 61 66 0.0 5.0 0.00 0.00 0.00 97 1008.6
20260507135632 61 8 0.0 5.0 0.00 0.00 0.00 97 1008.6
20260507135533 61 326 0.0 5.0 0.00 0.00 0.00 97 1008.7
20260507135431 61 69 0.0 5.0 0.00 0.00 0.00 97 1008.6
20260507135331 62 68 0.0 5.0 0.00 0.00 0.00 97 1008.6
20260507135233 61 87 0.0 5.0 0.00 0.00 0.00 97 1008.6
20260507135131 62 45 0.0 5.0 0.00 0.00 0.00 97 1008.6
20260507135031 62 72 0.0 5.0 0.00 0.00 0.00 97 1008.5
20260507134932 61 107 0.0 1.0 0.00 0.00 0.00 97 1008.5
20260507134832 62 83 0.0 3.0 0.00 0.00 0.00 97 1008.6
20260507134734 62 28 0.0 3.0 0.00 0.00 0.00 97 1008.5
20260507134634 62 28 0.0 3.0 0.00 0.00 0.00 97 1008.5
20260507134532 62 28 0.0 3.0 0.00 0.00 0.00 97 1008.5
20260507134433 62 96 0.0 3.0 0.00 0.00 0.00 97 1008.5
20260507134331 62 45 0.0 3.0 0.00 0.00 0.00 97 1008.5
20260507134232 62 42 0.0 3.0 0.00 0.00 0.00 97 1008.5
20260507134131 62 75 0.0 3.0 0.00 0.00 0.00 97 1008.6
20260507134032 62 92 0.0 3.0 0.00 0.00 0.00 97 1008.6
20260507133931 62 90 0.0 3.0 0.00 0.00 0.00 97 1008.6
20260507133831 62 92 0.0 2.0 0.00 0.00 0.00 97 1008.6
20260507133730 62 338 0.0 2.0 0.00 0.00 0.00 97 1008.6
20260507133633 62 336 0.0 4.0 0.00 0.00 0.00 97 1008.7
20260507133532 62 334 0.0 4.0 0.00 0.00 0.00 97 1008.7
20260507133432 62 358 0.0 4.0 0.00 0.00 0.00 97 1008.8
20260507133333 62 8 0.0 4.0 0.00 0.00 0.00 97 1008.8
20260507133220 62 10 0.0 4.0 0.00 0.00 0.00 97 1008.8
20260507133120 62 3 1.0 4.0 0.00 0.00 0.00 97 1008.8
20260507133016 62 37 0.0 4.0 0.00 0.00 0.00 97 1008.7
20260507132910 62 37 1.0 4.0 0.00 0.00 0.00 97 1008.7
20260507132807 62 65 1.0 4.0 0.00 0.00 0.00 97 1008.8
20260507132703 62 96 0.0 3.0 0.00 0.00 0.00 97 1008.6
20260507132601 62 96 0.0 3.0 0.00 0.00 0.00 97 1008.7
20260507132502 62 96 1.0 3.0 0.00 0.00 0.00 97 1008.7
20260507132404 62 106 0.0 3.0 0.00 0.00 0.00 97 1008.8
20260507132306 62 111 0.0 3.0 0.00 0.00 0.00 97 1008.7
20260507132203 62 210 0.0 3.0 0.00 0.00 0.00 97 1008.6
20260507132103 62 82 0.0 4.0 0.00 0.00 0.00 97 1008.6
20260507132003 62 80 1.0 4.0 0.00 0.00 0.00 97 1008.5
20260507131902 62 80 1.0 4.0 0.00 0.00 0.00 97 1008.5
20260507131802 62 44 1.0 4.0 0.00 0.00 0.00 97 1008.4
20260507131702 62 41 1.0 4.0 0.00 0.00 0.00 97 1008.3
20260507131602 62 76 1.0 4.0 0.00 0.00 0.00 97 1008.3
20260507131503 62 227 0.0 4.0 0.00 0.00 0.00 97 1008.4
20260507131404 62 227 1.0 4.0 0.00 0.00 0.00 97 1008.4
20260507131303 62 227 1.0 4.0 0.00 0.00 0.00 97 1008.4
20260507131203 62 154 0.0 4.0 0.00 0.00 0.00 97 1008.4
20260507131103 62 120 0.0 4.0 0.00 0.00 0.00 97 1008.4
20260507131003 62 183 0.0 4.0 0.00 0.00 0.00 97 1008.4
20260507130903 62 48 0.0 4.0 0.00 0.00 0.00 97 1008.4
20260507130803 62 78 0.0 4.0 0.00 0.00 0.00 97 1008.4
20260507130658 62 183 0.0 2.0 0.00 0.00 0.00 97 1008.5
20260507130557 62 183 0.0 3.0 0.00 0.00 0.00 97 1008.6
20260507130458 62 87 0.0 3.0 0.00 0.00 0.00 97 1008.6
20260507130400 62 120 0.0 3.0 0.00 0.00 0.00 97 1008.6
20260507130258 62 125 0.0 3.0 0.00 0.00 0.00 97 1008.6
20260507130159 62 206 0.0 4.0 0.00 0.00 0.00 97 1008.5
20260507130058 62 258 0.0 4.0 0.00 0.00 0.00 97 1008.5
20260507125958 62 130 0.0 4.0 0.00 0.00 0.00 97 1008.6
20260507125859 62 65 1.0 4.0 0.00 0.00 0.00 97 1008.5
20260507125759 62 65 2.0 4.0 0.00 0.00 0.00 97 1008.6
20260507125657 62 65 1.0 4.0 0.00 0.00 0.00 97 1008.6
20260507125558 62 61 0.0 4.0 0.00 0.00 0.00 97 1008.7
20260507125457 62 0 1.0 6.0 0.00 0.00 0.00 97 1008.5
20260507125358 62 224 2.0 6.0 0.00 0.00 0.00 97 1008.5
20260507125258 62 87 1.0 6.0 0.00 0.00 0.00 97 1008.5
20260507125158 62 79 0.0 6.0 0.00 0.00 0.00 97 1008.4
20260507125057 62 79 0.0 6.0 0.00 0.00 0.00 97 1008.4
20260507124959 62 78 0.0 6.0 0.00 0.00 0.00 96 1008.4
20260507124857 62 79 0.0 6.0 0.00 0.00 0.00 96 1008.5
20260507124759 62 78 1.0 6.0 0.00 0.00 0.00 96 1008.5
20260507124705 62 68 2.0 6.0 0.00 0.00 0.00 96 1008.5
20260507124559 62 86 2.0 6.0 0.00 0.00 0.00 97 1008.5
20260507124457 62 34 0.0 4.0 0.00 0.00 0.00 96 1008.6
20260507124358 62 17 0.0 4.0 0.00 0.00 0.00 96 1008.6
20260507124258 62 100 0.0 4.0 0.00 0.00 0.00 97 1008.6
20260507124157 62 100 0.0 4.0 0.00 0.00 0.00 96 1008.7
20260507124057 62 99 0.0 4.0 0.00 0.00 0.00 96 1008.7
20260507123957 62 99 0.0 4.0 0.00 0.00 0.00 96 1008.7
20260507123857 62 96 0.0 4.0 0.00 0.00 0.00 96 1008.6
20260507123800 62 96 1.0 4.0 0.00 0.00 0.00 96 1008.6
20260507123656 62 94 1.0 4.0 0.00 0.00 0.00 97 1008.4
20260507123554 62 97 1.0 4.0 0.00 0.00 0.00 97 1008.5
20260507123452 62 96 1.0 4.0 0.00 0.00 0.00 97 1008.5
20260507123346 62 117 0.0 4.0 0.00 0.00 0.00 97 1008.4
20260507123245 62 240 0.0 4.0 0.00 0.00 0.00 97 1008.5
20260507123144 62 117 0.0 4.0 0.00 0.00 0.00 96 1008.6
20260507123045 62 117 0.0 4.0 0.00 0.00 0.00 96 1008.5
20260507122941 62 118 1.0 5.0 0.00 0.00 0.00 97 1008.5
20260507122836 62 52 1.0 5.0 0.00 0.00 0.00 97 1008.5
20260507122730 62 71 1.0 5.0 0.00 0.00 0.00 97 1008.4
20260507122630 62 63 0.0 5.0 0.00 0.00 0.00 96 1008.3
20260507122537 62 97 0.0 5.0 0.00 0.00 0.00 97 1008.3
20260507122433 62 114 0.0 5.0 0.00 0.00 0.00 97 1008.1
20260507122335 62 114 1.0 5.0 0.00 0.00 0.00 97 1008.2
20260507122232 62 114 2.0 5.0 0.00 0.00 0.00 97 1008.1
20260507122132 63 124 2.0 5.0 0.00 0.00 0.00 97 1008.1
20260507122032 63 45 1.0 5.0 0.00 0.00 0.00 97 1008.0
20260507121928 63 230 0.0 5.0 0.00 0.00 0.00 97 1008.1
20260507121820 63 107 0.0 5.0 0.00 0.00 0.00 97 1008.0
20260507121715 63 107 1.0 5.0 0.00 0.00 0.00 97 1007.9
20260507121617 63 75 2.0 5.0 0.00 0.00 0.00 97 1007.8
20260507121516 63 79 1.0 5.0 0.00 0.00 0.00 97 1007.7
20260507121413 63 147 0.0 5.0 0.00 0.00 0.00 97 1007.6
20260507121308 63 147 0.0 5.0 0.00 0.00 0.00 97 1007.6
20260507121207 63 147 0.0 5.0 0.00 0.00 0.00 97 1007.5
20260507121103 63 99 1.0 5.0 0.00 0.00 0.00 97 1007.5
20260507121006 63 102 2.0 5.0 0.00 0.00 0.00 97 1007.5
20260507120904 63 79 1.0 5.0 0.00 0.00 0.00 97 1007.5
20260507120803 63 73 2.0 5.0 0.00 0.00 0.00 97 1007.4
20260507120703 63 71 0.0 4.0 0.00 0.00 0.00 97 1007.4
20260507120603 63 42 0.0 4.0 0.00 0.00 0.00 97 1007.3
20260507120504 63 41 0.0 4.0 0.00 0.00 0.00 97 1007.2
20260507120403 63 38 1.0 4.0 0.00 0.00 0.00 97 1007.2
20260507120305 63 32 1.0 4.0 0.00 0.00 0.00 97 1007.1
20260507120204 63 75 0.0 4.0 0.00 0.00 0.00 97 1007.0
20260507120113 63 83 1.0 4.0 0.00 0.00 0.00 97 1007.0
20260507120005 63 83 1.0 4.0 0.00 0.00 0.00 97 1007.0
20260507115902 63 107 1.0 4.0 0.00 0.00 0.00 97 1007.1
20260507115804 63 96 1.0 3.0 0.00 0.00 0.00 97 1007.1
20260507115704 63 96 1.0 3.0 0.00 0.00 0.00 97 1007.2
20260507115604 63 27 0.0 2.0 0.00 0.00 0.00 97 1007.2
20260507115505 63 193 0.0 4.0 0.00 0.00 0.00 97 1007.3
20260507115404 63 193 0.0 4.0 0.00 0.00 0.00 97 1007.3
20260507115307 63 192 0.0 4.0 0.00 0.00 0.00 97 1007.2
20260507115204 63 189 0.0 4.0 0.00 0.00 0.00 97 1007.2
20260507115104 63 110 0.0 4.0 0.00 0.00 0.00 97 1007.1
20260507115004 63 97 0.0 4.0 0.00 0.00 0.00 97 1007.0
20260507114903 63 97 0.0 4.0 0.00 0.00 0.00 97 1006.9
20260507114804 63 68 0.0 4.0 0.00 0.00 0.00 97 1006.9
20260507114705 63 68 1.0 5.0 0.00 0.00 0.00 97 1006.8
20260507114603 63 66 2.0 5.0 0.00 0.00 0.00 97 1006.9
20260507114504 63 54 1.0 5.0 0.00 0.00 0.00 97 1006.9
20260507114403 63 42 0.0 5.0 0.00 0.00 0.00 97 1006.8
20260507114302 63 42 0.0 5.0 0.00 0.00 0.00 97 1006.8
20260507114202 63 158 2.0 5.0 0.00 0.00 0.00 97 1006.8
20260507114103 63 151 2.0 5.0 0.00 0.00 0.00 97 1006.8
20260507114003 63 341 1.0 5.0 0.00 0.00 0.00 97 1006.9
20260507113856 63 212 1.0 5.0 0.00 0.00 0.00 97 1006.9
20260507113755 63 104 1.0 5.0 0.00 0.00 0.00 97 1006.9
20260507113701 63 78 1.0 5.0 0.00 0.00 0.00 97 1007.0
20260507113555 63 69 2.0 5.0 0.00 0.00 0.00 97 1007.1
20260507113455 63 79 1.0 5.0 0.00 0.00 0.00 97 1007.2
20260507113357 63 329 0.0 5.0 0.00 0.00 0.00 97 1007.2
20260507113256 63 63 1.0 5.0 0.00 0.00 0.00 97 1007.3
20260507113156 63 86 2.0 5.0 0.00 0.00 0.00 97 1007.2
20260507113057 64 71 2.0 5.0 0.00 0.00 0.00 97 1007.2
20260507112955 64 96 2.0 5.0 0.00 0.00 0.00 97 1007.2
20260507112855 64 193 1.0 5.0 0.00 0.00 0.00 97 1007.2
20260507112756 64 193 1.0 5.0 0.00 0.00 0.00 97 1007.1
20260507112655 64 186 1.0 5.0 0.00 0.00 0.00 97 1007.1
20260507112555 64 247 1.0 5.0 0.00 0.00 0.00 97 1007.2
20260507112457 64 78 0.0 2.0 0.00 0.00 0.00 97 1007.2
20260507112357 64 4 0.0 2.0 0.00 0.00 0.00 97 1007.2
20260507112257 64 0 0.0 2.0 0.00 0.00 0.00 97 1007.2
20260507112156 64 264 0.0 0.0 0.00 0.00 0.00 97 1007.2
20260507112055 64 0 0.0 0.0 0.00 0.00 0.00 97 1007.2
20260507111956 64 10 0.0 0.0 0.00 0.00 0.00 97 1007.1
20260507111855 64 111 0.0 0.0 0.00 0.00 0.00 97 1007.1
20260507111756 64 0 0.0 0.0 0.00 0.00 0.00 97 1007.1
20260507111655 64 164 0.0 0.0 0.00 0.00 0.00 97 1007.0
20260507111555 64 75 0.0 0.0 0.00 0.00 0.00 97 1006.9
20260507111454 64 75 0.0 1.0 0.00 0.00 0.00 97 1006.8
20260507111355 64 75 0.0 1.0 0.00 0.00 0.00 97 1006.7
20260507111255 64 173 0.0 1.0 0.00 0.00 0.00 97 1006.7
20260507111156 64 107 0.0 1.0 0.00 0.00 0.00 97 1006.7
20260507111055 64 106 0.0 1.0 0.00 0.00 0.00 97 1006.6
20260507110955 64 104 0.0 1.0 0.00 0.00 0.00 97 1006.7
20260507110855 64 99 0.0 1.0 0.00 0.00 0.00 97 1006.7
20260507110755 64 100 0.0 1.0 0.00 0.00 0.00 97 1006.7
20260507110655 64 59 0.0 1.0 0.00 0.00 0.00 97 1006.8
20260507110555 64 61 0.0 1.0 0.00 0.00 0.00 97 1006.8
20260507110455 64 134 0.0 0.0 0.00 0.00 0.00 97 1006.9
20260507110356 64 96 0.0 2.0 0.00 0.00 0.00 97 1006.9
20260507110256 64 96 0.0 2.0 0.00 0.00 0.00 97 1006.8
20260507110155 64 66 0.0 2.0 0.00 0.00 0.00 97 1006.8
20260507110055 64 94 0.0 2.0 0.00 0.00 0.00 97 1006.7
20260507105956 64 94 0.0 2.0 0.00 0.00 0.00 97 1006.6
20260507105856 64 94 0.0 2.0 0.00 0.00 0.00 97 1006.6
20260507105754 64 94 0.0 2.0 0.00 0.00 0.00 97 1006.6
20260507105656 64 94 0.0 2.0 0.00 0.00 0.00 97 1006.5
20260507105555 64 94 0.0 2.0 0.00 0.00 0.00 97 1006.6
20260507105455 64 94 1.0 2.0 0.00 0.00 0.00 97 1006.5
20260507105355 64 92 0.0 2.0 0.00 0.00 0.00 97 1006.6
20260507105254 64 78 0.0 2.0 0.00 0.00 0.00 97 1006.5
20260507105156 64 76 0.0 2.0 0.00 0.00 0.00 97 1006.4
20260507105054 64 78 0.0 2.0 0.00 0.00 0.00 97 1006.4
20260507104956 64 75 0.0 2.0 0.00 0.00 0.00 97 1006.4
20260507104856 64 73 0.0 2.0 0.00 0.00 0.00 97 1006.4
20260507104756 64 73 0.0 2.0 0.00 0.00 0.00 97 1006.5
20260507104656 64 73 0.0 2.0 0.00 0.00 0.00 97 1006.6
20260507104556 64 338 0.0 2.0 0.00 0.00 0.00 97 1006.6
20260507104458 64 338 0.0 2.0 0.00 0.00 0.00 97 1006.7
20260507104354 64 324 0.0 2.0 0.00 0.00 0.00 97 1006.6
20260507104256 64 324 0.0 2.0 0.00 0.00 0.00 97 1006.6
20260507104154 64 324 0.0 2.0 0.00 0.00 0.00 97 1006.6
20260507104058 64 59 0.0 2.0 0.00 0.00 0.00 97 1006.5
20260507103956 64 51 0.0 3.0 0.00 0.00 0.00 97 1006.4
20260507103854 64 51 0.0 3.0 0.00 0.00 0.00 97 1006.3
20260507103756 64 52 0.0 4.0 0.00 0.00 0.00 97 1006.3
20260507103655 64 4 0.0 4.0 0.00 0.00 0.00 97 1006.3
20260507103555 64 4 0.0 4.0 0.00 0.00 0.00 97 1006.3
20260507103456 64 3 0.0 4.0 0.00 0.00 0.00 97 1006.3
20260507103354 64 3 0.0 4.0 0.00 0.00 0.00 97 1006.3
20260507103256 64 79 0.0 4.0 0.00 0.00 0.00 97 1006.4
20260507103156 64 85 1.0 4.0 0.00 0.00 0.00 97 1006.2
20260507103056 64 86 1.0 4.0 0.00 0.00 0.00 97 1006.2
20260507102954 64 82 1.0 4.0 0.00 0.00 0.00 97 1006.2
20260507102855 64 85 1.0 4.0 0.00 0.00 0.00 97 1006.2
20260507102756 64 90 0.0 3.0 0.00 0.00 0.00 97 1006.3
20260507102654 64 89 0.0 2.0 0.00 0.00 0.00 97 1006.3
20260507102555 64 89 0.0 2.0 0.00 0.00 0.00 97 1006.3
20260507102455 64 89 0.0 2.0 0.00 0.00 0.00 97 1006.4
20260507102354 64 92 0.0 3.0 0.00 0.00 0.00 97 1006.4
20260507102257 64 92 0.0 3.0 0.00 0.00 0.00 97 1006.5
20260507102156 64 94 0.0 3.0 0.00 0.00 0.00 97 1006.4
20260507102054 64 94 0.0 3.0 0.00 0.00 0.00 97 1006.4
20260507101955 64 97 0.0 3.0 0.00 0.00 0.00 97 1006.4
20260507101853 64 121 0.0 3.0 0.00 0.00 0.00 97 1006.4
20260507101755 64 121 0.0 3.0 0.00 0.00 0.00 97 1006.3
20260507101656 64 121 0.0 3.0 0.00 0.00 0.00 97 1006.4
20260507101555 64 121 1.0 3.0 0.00 0.00 0.00 97 1006.3
20260507101453 64 121 1.0 3.0 0.00 0.00 0.00 97 1006.3
20260507101354 64 63 0.0 0.0 0.00 0.00 0.00 97 1006.3
20260507101255 64 63 0.0 0.0 0.00 0.00 0.00 97 1006.3
20260507101154 64 63 0.0 0.0 0.00 0.00 0.00 97 1006.2
20260507101053 64 63 0.0 0.0 0.00 0.00 0.00 97 1006.2
20260507100954 64 63 0.0 0.0 0.00 0.00 0.00 97 1006.1
20260507100855 64 63 0.0 0.0 0.00 0.00 0.00 97 1006.1
20260507100755 64 63 0.0 0.0 0.00 0.00 0.00 97 1006.0
20260507100653 64 63 0.0 0.0 0.00 0.00 0.00 97 1005.9
20260507100554 64 63 0.0 0.0 0.00 0.00 0.00 97 1005.8
20260507100453 64 63 0.0 0.0 0.00 0.00 0.00 97 1005.8
20260507100355 64 63 0.0 0.0 0.00 0.00 0.00 97 1005.8
20260507100254 64 63 0.0 0.0 0.00 0.00 0.00 97 1005.8
20260507100155 64 63 0.0 0.0 0.00 0.00 0.00 97 1006.0
20260507100055 64 63 0.0 0.0 0.00 0.00 0.00 97 1006.0
20260507095954 64 63 0.0 0.0 0.00 0.00 0.00 97 1006.0
20260507095853 64 63 0.0 0.0 0.00 0.00 0.00 97 1006.1
20260507095753 64 63 0.0 0.0 0.00 0.00 0.00 97 1006.1
20260507095656 64 63 0.0 0.0 0.00 0.00 0.00 97 1006.1
20260507095554 64 63 0.0 1.0 0.00 0.00 0.00 97 1006.1
20260507095455 64 63 0.0 5.0 0.00 0.00 0.00 97 1006.1
20260507095355 64 63 0.0 5.0 0.00 0.00 0.00 97 1006.0
20260507095256 64 63 0.0 5.0 0.00 0.00 0.00 97 1006.0
20260507095154 64 63 0.0 5.0 0.00 0.00 0.00 97 1005.9
20260507095054 64 63 0.0 5.0 0.00 0.00 0.00 97 1005.9
20260507094953 64 63 0.0 5.0 0.00 0.00 0.00 97 1005.8
20260507094854 64 63 0.0 5.0 0.00 0.00 0.00 97 1005.7
20260507094754 64 63 0.0 5.0 0.00 0.00 0.00 97 1005.5
20260507094654 64 63 1.0 5.0 0.00 0.00 0.00 97 1005.5
20260507094553 64 61 1.0 5.0 0.00 0.00 0.00 97 1005.5
20260507094458 64 41 0.0 0.0 0.00 0.00 0.00 97 1005.7
20260507094353 64 82 0.0 0.0 0.00 0.00 0.00 97 1005.8
20260507094253 64 82 0.0 0.0 0.00 0.00 0.00 97 1005.8
20260507094154 64 82 0.0 1.0 0.00 0.00 0.00 97 1005.8
20260507094052 64 82 0.0 1.0 0.00 0.00 0.00 97 1005.6
20260507093954 64 82 0.0 1.0 0.00 0.00 0.00 97 1005.5
20260507093853 64 83 0.0 1.0 0.00 0.00 0.00 97 1005.4
20260507093754 64 83 0.0 1.0 0.00 0.00 0.00 97 1005.4
20260507093659 64 83 0.0 1.0 0.00 0.00 0.00 97 1005.4
20260507093553 64 83 0.0 1.0 0.00 0.00 0.00 97 1005.5
20260507093452 64 83 0.0 1.0 0.00 0.00 0.00 97 1005.5
20260507093354 64 83 0.0 1.0 0.00 0.00 0.00 97 1005.6
20260507093255 64 83 0.0 1.0 0.00 0.00 0.00 97 1005.6
20260507093155 64 0 0.0 0.0 0.00 0.00 0.00 97 1005.7
20260507093054 64 0 0.0 0.0 0.00 0.00 0.00 97 1005.6
20260507092954 64 0 0.0 0.0 0.00 0.00 0.00 97 1005.5
20260507092854 64 0 0.0 0.0 0.00 0.00 0.00 97 1005.4
20260507092753 64 0 0.0 0.0 0.00 0.00 0.00 97 1005.3
20260507092653 64 358 0.0 0.0 0.00 0.00 0.00 97 1005.2
20260507092552 64 358 0.0 0.0 0.00 0.00 0.00 97 1005.2
20260507092453 64 358 0.0 0.0 0.00 0.00 0.00 97 1005.1
20260507092354 64 358 0.0 0.0 0.00 0.00 0.00 97 1005.3
20260507092254 64 85 0.0 0.0 0.00 0.00 0.00 97 1005.3
20260507092155 64 83 0.0 5.0 0.00 0.00 0.00 97 1005.3
20260507092054 64 83 0.0 5.0 0.00 0.00 0.00 97 1005.4
20260507091953 64 83 0.0 5.0 0.00 0.00 0.00 97 1005.4
20260507091853 64 83 0.0 5.0 0.00 0.00 0.00 97 1005.4
20260507091753 64 83 0.0 5.0 0.00 0.00 0.00 97 1005.4
20260507091654 64 85 0.0 5.0 0.00 0.00 0.00 97 1005.3
20260507091554 64 83 0.0 5.0 0.00 0.00 0.00 97 1005.4
20260507091453 64 83 0.0 5.0 0.00 0.00 0.00 97 1005.4
20260507091352 64 82 1.0 5.0 0.00 0.00 0.00 97 1005.4
20260507091254 64 78 1.0 5.0 0.00 0.00 0.00 97 1005.4
20260507091152 64 85 0.0 3.0 0.00 0.00 0.00 97 1005.4
20260507091054 64 85 0.0 3.0 0.00 0.00 0.00 97 1005.4
20260507090954 64 85 0.0 3.0 0.00 0.00 0.00 97 1005.2
20260507090854 64 79 0.0 3.0 0.00 0.00 0.00 97 1005.2
20260507090753 64 79 0.0 3.0 0.00 0.00 0.00 97 1005.3
20260507090654 64 79 0.0 3.0 0.00 0.00 0.00 97 1005.2
20260507090552 64 79 0.0 3.0 0.00 0.00 0.00 97 1005.3
20260507090454 64 79 1.0 3.0 0.00 0.00 0.00 97 1005.3
20260507090353 64 51 0.0 3.0 0.00 0.00 0.00 97 1005.3
20260507090252 64 51 0.0 3.0 0.00 0.00 0.00 97 1005.4
20260507090153 64 51 0.0 3.0 0.00 0.00 0.00 97 1005.4
20260507090052 64 51 0.0 4.0 0.00 0.00 0.00 97 1005.5
20260507085953 64 51 0.0 5.0 0.00 0.00 0.00 97 1005.5
20260507085852 64 51 1.0 5.0 0.00 0.00 0.00 97 1005.3
20260507085753 64 51 1.0 5.0 0.00 0.00 0.00 97 1005.3
20260507085654 64 76 0.0 5.0 0.00 0.00 0.00 96 1005.2
20260507085552 64 80 0.0 5.0 0.00 0.00 0.00 96 1005.1
20260507085453 64 59 0.0 5.0 0.00 0.00 0.00 96 1005.2
20260507085353 64 58 0.0 5.0 0.00 0.00 0.00 96 1005.2
20260507085252 64 59 1.0 5.0 0.00 0.00 0.00 96 1005.2
20260507085156 64 76 2.0 5.0 0.00 0.00 0.00 96 1005.2
20260507085049 64 82 0.0 4.0 0.00 0.00 0.00 96 1005.2
20260507084947 64 85 1.0 4.0 0.00 0.00 0.00 96 1005.4
20260507084844 64 85 1.0 4.0 0.00 0.00 0.00 96 1005.4
20260507084738 64 61 0.0 3.0 0.00 0.00 0.00 96 1005.5
20260507084632 64 30 0.0 3.0 0.00 0.00 0.00 96 1005.6